WA4BPS Weather Reports


time (UTC)temp
C
wind
direction
speed
KPH
gust
KPH
rain 1hr
cm
rain 24hr
cm
rain mn
cm
humidity
%
barometer
mb
20260507023427 13 322 16.1 20.9 0.00 0.00 0.00 98 1009.3
20260507023325 13 220 11.3 19.3 0.00 0.00 0.00 98 1009.3
20260507023235 13 248 16.1 19.3 0.00 0.00 0.00 98 1009.3
20260507023149 13 323 16.1 19.3 0.00 0.00 0.00 98 1009.3
20260507023026 13 253 11.3 17.7 0.00 0.00 0.00 98 1009.3
20260507022924 13 109 9.7 17.7 0.00 0.00 0.00 98 1009.3
20260507022843 13 322 9.7 17.7 0.00 0.00 0.00 98 1009.6
20260507022742 13 305 8.0 17.7 0.00 0.00 0.00 98 1009.6
20260507022640 13 271 8.0 17.7 0.00 0.00 0.00 98 1009.6
20260507022538 13 229 9.7 17.7 0.00 0.00 0.00 97 1009.6
20260507022440 13 326 12.9 17.7 0.00 0.00 0.00 97 1009.6
20260507022339 13 319 14.5 17.7 0.00 0.00 0.00 97 1009.6
20260507022237 13 322 14.5 17.7 0.00 0.00 0.00 97 1009.6
20260507022136 13 309 12.9 16.1 0.00 0.00 0.00 97 1009.6
20260507022054 13 250 11.3 14.5 0.00 0.00 0.00 97 1009.6
20260507021930 13 299 8.0 14.5 0.00 0.00 0.00 97 1009.6
20260507021829 13 174 6.4 14.5 0.00 0.00 0.00 97 1009.6
20260507021733 13 86 6.4 14.5 0.00 0.00 0.00 97 1009.6
20260507021703 13 148 8.0 14.5 0.00 0.00 0.00 97 1009.6
20260507021540 13 325 9.7 14.5 0.00 0.00 0.00 98 1009.6
20260507021438 13 326 11.3 14.5 0.00 0.00 0.00 98 1009.6
20260507021337 13 329 11.3 14.5 0.00 0.00 0.00 98 1009.2
20260507021239 13 226 11.3 14.5 0.00 0.00 0.00 98 1009.2
20260507021138 13 328 12.9 14.5 0.00 0.00 0.00 98 1009.2
20260507021041 13 318 11.3 14.5 0.00 0.00 0.00 97 1009.2
20260507020959 13 320 9.7 11.3 0.00 0.00 0.00 98 1009.2
20260507020837 13 145 6.4 12.9 0.00 0.00 0.00 98 1009.2
20260507020736 13 295 6.4 12.9 0.00 0.00 0.00 98 1009.2
20260507020656 13 288 9.7 12.9 0.00 0.00 0.00 97 1009.2
20260507020534 13 329 9.7 12.9 0.00 0.00 0.00 97 1009.2
20260507020431 13 219 9.7 12.9 0.00 0.00 0.00 97 1009.2
20260507020330 13 169 9.7 12.9 0.00 0.00 0.00 97 1009.2
20260507020232 13 157 9.7 12.9 0.00 0.00 0.00 97 1009.2
20260507020202 13 215 9.7 12.9 0.00 0.00 0.00 97 1009.2
20260507020038 13 160 11.3 12.9 0.00 0.00 0.00 97 1009.2
20260507015937 13 318 11.3 12.9 0.00 0.00 0.00 97 1009.2
20260507015835 13 322 11.3 12.9 0.00 0.00 0.00 97 1009.2
20260507015734 13 270 9.7 12.9 0.00 0.00 0.00 97 1009.2
20260507015634 13 270 9.7 12.9 0.00 0.00 0.00 97 1009.2
20260507015537 13 230 8.0 12.9 0.00 0.00 0.00 97 1009.2
20260507015456 13 247 9.7 12.9 0.00 0.00 0.00 97 1009.2
20260507015334 13 329 9.7 12.9 0.00 0.00 0.00 97 1009.2
20260507015232 13 326 9.7 12.9 0.00 0.00 0.00 97 1009.2
20260507015130 13 222 9.7 12.9 0.00 0.00 0.00 97 1009.2
20260507015048 13 130 11.3 12.9 0.00 0.00 0.00 97 1009.2
20260507014925 13 332 8.0 12.9 0.00 0.00 0.00 97 1009.2
20260507014829 13 312 8.0 16.1 0.00 0.00 0.00 97 1009.2
20260507014728 13 258 11.3 16.1 0.00 0.00 0.00 97 1009.2
20260507014657 13 309 11.3 17.7 0.00 0.00 0.00 97 1009.2
20260507014537 13 288 11.3 17.7 0.00 0.00 0.00 97 1009.2
20260507014456 13 326 11.3 17.7 0.00 0.00 0.00 97 1009.2
20260507014334 13 289 11.3 17.7 0.00 0.00 0.00 97 1009.1
20260507014235 13 203 11.3 17.7 0.00 0.00 0.00 97 1009.1
20260507014136 13 99 9.7 17.7 0.00 0.00 0.00 97 1009.1
20260507014038 13 117 11.3 17.7 0.00 0.00 0.00 97 1009.1
20260507013955 13 330 14.5 17.7 0.00 0.00 0.00 97 1009.1
20260507013833 13 75 12.9 17.7 0.00 0.00 0.00 97 1009.1
20260507013731 13 213 14.5 17.7 0.00 0.00 0.00 97 1009.1
20260507013628 13 278 12.9 17.7 0.00 0.00 0.00 97 1009.1
20260507013547 13 312 14.5 17.7 0.00 0.00 0.00 97 1009.1
20260507013445 13 295 14.5 17.7 0.00 0.00 0.00 97 1009.1
20260507013403 13 330 12.9 17.7 0.00 0.00 0.00 97 1009.1
20260507013236 13 182 12.9 17.7 0.00 0.00 0.00 97 1009.1
20260507013145 13 313 11.3 17.7 0.00 0.00 0.00 97 1009.1
20260507013041 13 323 11.3 17.7 0.00 0.00 0.00 97 1009.1
20260507012940 13 316 11.3 17.7 0.00 0.00 0.00 97 1009.1
20260507012838 13 322 12.9 17.7 0.00 0.00 0.00 97 1008.9
20260507012737 13 326 12.9 17.7 0.00 0.00 0.00 97 1008.9
20260507012637 13 326 14.5 17.7 0.00 0.00 0.00 97 1008.9
20260507012535 13 241 12.9 17.7 0.00 0.00 0.00 97 1008.9
20260507012437 13 145 11.3 17.7 0.00 0.00 0.00 97 1008.9
20260507012355 13 330 12.9 17.7 0.00 0.00 0.00 97 1008.9
20260507012232 13 329 11.3 19.3 0.00 0.00 0.00 97 1008.9
20260507012131 13 306 14.5 19.3 0.00 0.00 0.00 97 1008.9
20260507012029 13 319 16.1 19.3 0.00 0.00 0.00 97 1008.9
20260507011927 13 296 14.5 19.3 0.00 0.00 0.00 97 1008.9
20260507011825 13 92 11.3 19.3 0.00 0.00 0.00 97 1008.9
20260507011739 13 224 12.9 20.9 0.00 0.00 0.00 97 1008.9
20260507011651 13 304 14.5 20.9 0.00 0.00 0.00 97 1008.9
20260507011529 13 247 14.5 22.5 0.00 0.00 0.00 97 1008.9
20260507011447 13 329 14.5 22.5 0.00 0.00 0.00 97 1008.9
20260507011326 13 261 12.9 24.1 0.00 0.00 0.00 97 1009.3
20260507011244 13 325 12.9 24.1 0.00 0.00 0.00 97 1009.3
20260507011203 13 136 14.5 24.1 0.00 0.00 0.00 97 1009.3
20260507011042 13 319 16.1 24.1 0.00 0.00 0.00 97 1009.3
20260507010924 13 326 16.1 24.1 0.00 0.00 0.00 97 1009.3
20260507010842 13 313 19.3 24.1 0.00 0.00 0.00 97 1009.3
20260507010800 13 219 16.1 24.1 0.00 0.00 0.00 97 1009.3
20260507010638 13 169 19.3 24.1 0.00 0.00 0.00 97 1009.3
20260507010557 13 205 20.9 24.1 0.00 0.00 0.00 97 1009.3
20260507010435 13 328 16.1 20.9 0.00 0.00 0.00 97 1009.3
20260507010334 13 236 16.1 19.3 0.00 0.00 0.00 97 1009.3
20260507010243 13 95 12.9 19.3 0.00 0.00 0.00 97 1009.3
20260507010157 13 160 14.5 19.3 0.00 0.00 0.00 97 1009.3
20260507010034 13 328 12.9 17.7 0.00 0.00 0.00 97 1009.3
20260507005932 13 323 12.9 17.7 0.00 0.00 0.00 97 1009.3
20260507005850 13 160 12.9 17.7 0.00 0.00 0.00 97 1009.4
20260507005727 13 329 12.9 17.7 0.00 0.00 0.00 97 1009.4
20260507005627 13 302 11.3 17.7 0.00 0.00 0.00 97 1009.4
20260507005525 13 264 12.9 17.7 0.00 0.00 0.00 97 1009.4
20260507005427 13 268 11.3 17.7 0.00 0.00 0.00 97 1009.4
20260507005324 13 329 14.5 17.7 0.00 0.00 0.00 97 1009.4
20260507005243 13 165 14.5 17.7 0.00 0.00 0.00 97 1009.4
20260507005140 13 285 12.9 17.7 0.00 0.00 0.00 97 1009.4
20260507005039 13 326 14.5 17.7 0.00 0.00 0.00 97 1009.4
20260507004937 13 330 14.5 19.3 0.00 0.00 0.00 97 1009.4
20260507004835 13 328 14.5 19.3 0.00 0.00 0.00 97 1009.4
20260507004744 13 328 11.3 19.3 0.00 0.00 0.00 97 1009.4
20260507004657 13 329 12.9 19.3 0.00 0.00 0.00 97 1009.4
20260507004535 13 281 12.9 19.3 0.00 0.00 0.00 97 1009.4
20260507004432 13 320 12.9 19.3 0.00 0.00 0.00 97 1009.4
20260507004331 13 330 14.5 19.3 0.00 0.00 0.00 97 1009.6
20260507004229 13 319 11.3 19.3 0.00 0.00 0.00 97 1009.6
20260507004127 13 244 14.5 19.3 0.00 0.00 0.00 97 1009.6
20260507004027 13 330 12.9 17.7 0.00 0.00 0.00 97 1009.6
20260507003949 13 298 12.9 17.7 0.00 0.00 0.00 97 1009.6
20260507003827 13 325 14.5 17.7 0.00 0.00 0.00 97 1009.6
20260507003726 13 316 14.5 17.7 0.00 0.00 0.00 97 1009.6
20260507003625 13 144 12.9 17.7 0.00 0.00 0.00 97 1009.6
20260507003528 13 330 4.8 17.7 0.00 0.00 0.00 97 1009.6
20260507003426 13 325 6.4 17.7 0.00 0.00 0.00 97 1009.6
20260507003324 13 326 11.3 19.3 0.00 0.00 0.00 97 1009.6
20260507003247 13 330 12.9 22.5 0.00 0.00 0.00 97 1009.6
20260507003157 13 323 11.3 22.5 0.00 0.00 0.00 97 1009.6
20260507003033 14 284 11.3 22.5 0.00 0.00 0.00 97 1009.6
20260507002953 13 323 11.3 22.5 0.00 0.00 0.00 97 1009.6
20260507002830 13 325 12.9 25.7 0.00 0.00 0.00 97 1009.1
20260507002749 13 281 11.3 25.7 0.00 0.00 0.00 97 1009.1
20260507002627 13 326 12.9 25.7 0.00 0.00 0.00 97 1009.1
20260507002526 13 126 12.9 25.7 0.00 0.00 0.00 97 1009.1
20260507002432 13 184 14.5 25.7 0.00 0.00 0.00 97 1009.1
20260507002330 13 323 14.5 25.7 0.00 0.00 0.00 97 1009.1
20260507002229 13 287 11.3 25.7 0.00 0.00 0.00 97 1009.1
20260507002127 13 313 12.9 25.7 0.00 0.00 0.00 97 1009.1
20260507002046 13 256 14.5 25.7 0.00 0.00 0.00 97 1009.1
20260507001924 13 241 16.1 25.7 0.00 0.00 0.00 97 1009.1
20260507001843 13 326 14.5 25.7 0.00 0.00 0.00 97 1009.1
20260507001737 14 265 17.7 25.7 0.00 0.00 0.00 97 1009.1
20260507001646 13 271 20.9 25.7 0.00 0.00 0.00 97 1009.1
20260507001544 14 329 19.3 25.7 0.00 0.00 0.00 97 1009.1
20260507001441 14 200 14.5 25.7 0.00 0.00 0.00 97 1009.1
20260507001340 14 184 19.3 25.7 0.00 0.00 0.00 97 1009.5
20260507001238 14 227 14.5 25.7 0.00 0.00 0.00 97 1009.5
20260507001136 14 263 16.1 22.5 0.00 0.00 0.00 97 1009.5
20260507001033 14 232 17.7 22.5 0.00 0.00 0.00 97 1009.5
20260507000937 14 329 16.1 22.5 0.00 0.00 0.00 97 1009.5
20260507000835 14 325 16.1 22.5 0.00 0.00 0.00 97 1009.5
20260507000754 14 92 16.1 22.5 0.00 0.00 0.00 97 1009.5
20260507000631 14 189 14.5 22.5 0.00 0.00 0.00 97 1009.5
20260507000532 14 308 14.5 22.5 0.00 0.00 0.00 97 1009.5
20260507000429 14 251 14.5 22.5 0.00 0.00 0.00 97 1009.5
20260507000329 14 354 14.5 20.9 0.00 0.00 0.00 97 1009.5
20260507000248 14 227 11.3 20.9 0.00 0.00 0.00 97 1009.5
20260507000222 14 356 12.9 20.9 0.00 0.00 0.00 97 1009.5
20260507000038 14 328 14.5 20.9 0.00 0.00 0.00 97 1009.5
20260506235937 14 281 11.3 20.9 0.00 0.00 0.00 97 1009.5
20260506235836 14 137 9.7 20.9 0.00 0.00 0.00 97 1009.0
20260506235734 14 360 11.3 20.9 0.00 0.00 0.00 97 1009.0
20260506235631 14 174 9.7 20.9 0.00 0.00 0.00 97 1009.0
20260506235529 14 333 8.0 20.9 0.00 0.00 0.00 97 1009.0
20260506235433 14 329 6.4 20.9 0.00 0.00 0.00 97 1009.0
20260506235332 14 326 11.3 25.7 0.00 0.00 0.00 97 1009.0
20260506235232 14 328 9.7 25.7 0.00 0.00 0.00 97 1009.0
20260506235150 15 119 17.7 25.7 0.00 0.00 0.00 97 1009.0
20260506235046 15 109 11.3 25.7 0.00 0.00 0.00 97 1009.0
20260506234925 15 294 12.9 25.7 0.00 0.00 0.00 97 1009.0
20260506234824 14 220 9.7 25.7 0.00 0.00 0.00 97 1009.0
20260506234755 15 167 12.9 25.7 0.00 0.00 0.00 97 1009.0
20260506234645 15 328 12.9 25.7 0.00 0.00 0.00 97 1009.0
20260506234544 15 199 14.5 25.7 0.00 0.00 0.00 97 1009.0
20260506234442 15 172 14.5 19.3 0.00 0.00 0.00 97 1009.0
20260506234322 15 318 12.9 17.7 0.00 0.00 0.00 97 1009.0
20260506234243 15 277 11.3 17.7 0.00 0.00 0.00 97 1009.0
20260506234142 15 220 8.0 12.9 0.00 0.00 0.00 97 1009.0
20260506234041 15 247 9.7 14.5 0.00 0.00 0.00 97 1009.0
20260506233958 15 145 9.7 17.7 0.00 0.00 0.00 97 1009.0
20260506233840 15 212 9.7 17.7 0.00 0.00 0.00 97 1009.0
20260506233738 15 359 8.0 17.7 0.00 0.00 0.00 97 1009.0
20260506233637 15 329 9.7 17.7 0.00 0.00 0.00 96 1009.0
20260506233536 15 330 9.7 17.7 0.00 0.00 0.00 97 1009.0
20260506233454 15 296 9.7 17.7 0.00 0.00 0.00 96 1009.0
20260506233332 15 329 11.3 17.7 0.00 0.00 0.00 96 1009.0
20260506233301 15 308 12.9 17.7 0.00 0.00 0.00 96 1009.0
20260506233151 15 316 12.9 17.7 0.00 0.00 0.00 96 1009.0
20260506233032 15 274 9.7 17.7 0.00 0.00 0.00 96 1009.0
20260506232950 15 306 9.7 19.3 0.00 0.00 0.00 96 1009.0
20260506232828 15 206 12.9 19.3 0.00 0.00 0.00 96 1009.3
20260506232725 15 333 9.7 19.3 0.00 0.00 0.00 96 1009.3
20260506232643 15 72 12.9 19.3 0.00 0.00 0.00 96 1009.3
20260506232540 15 282 12.9 19.3 0.00 0.00 0.00 96 1009.3
20260506232459 15 308 11.3 22.5 0.00 0.00 0.00 96 1009.3
20260506232336 15 304 11.3 22.5 0.00 0.00 0.00 96 1009.3
20260506232239 15 113 11.3 22.5 0.00 0.00 0.00 96 1009.3
20260506232137 15 346 12.9 22.5 0.00 0.00 0.00 96 1009.3
20260506232035 15 356 11.3 22.5 0.00 0.00 0.00 96 1009.3
20260506231934 15 243 11.3 24.1 0.00 0.00 0.00 96 1009.3
20260506231833 15 330 14.5 24.1 0.00 0.00 0.00 96 1009.3
20260506231743 15 141 11.3 24.1 0.00 0.00 0.00 96 1009.3
20260506231652 15 176 16.1 24.1 0.00 0.00 0.00 96 1009.3
20260506231535 15 14 11.3 24.1 0.00 0.00 0.00 96 1009.3
20260506231436 15 239 14.5 24.1 0.00 0.00 0.00 96 1009.3
20260506231333 16 295 16.1 24.1 0.00 0.00 0.00 96 1009.2
20260506231233 16 328 16.1 24.1 0.00 0.00 0.00 96 1009.2
20260506231131 16 340 17.7 24.1 0.00 0.00 0.00 96 1009.2
20260506231029 16 328 16.1 20.9 0.00 0.00 0.00 96 1009.2
20260506230927 16 356 14.5 20.9 0.00 0.00 0.00 96 1009.2
20260506230850 16 313 12.9 20.9 0.00 0.00 0.00 96 1009.2
20260506230726 16 328 14.5 20.9 0.00 0.00 0.00 96 1009.2
20260506230644 16 352 12.9 20.9 0.00 0.00 0.00 96 1009.2
20260506230542 16 326 11.3 20.9 0.00 0.00 0.00 96 1009.2
20260506230441 16 323 11.3 20.9 0.00 0.00 0.00 97 1009.2
20260506230400 16 229 12.9 20.9 0.00 0.00 0.00 97 1009.2
20260506230237 16 329 12.9 19.3 0.00 0.00 0.00 97 1009.2
20260506230207 16 319 12.9 19.3 0.00 0.00 0.00 97 1009.2
20260506230104 16 349 9.7 19.3 0.00 0.00 0.00 97 1009.2
20260506225941 16 136 11.3 19.3 0.00 0.00 0.00 97 1009.2
20260506225903 16 337 11.3 19.3 0.00 0.00 0.00 97 1009.0
20260506225741 16 344 12.9 19.3 0.00 0.00 0.00 97 1009.0
20260506225639 16 329 12.9 19.3 0.00 0.00 0.00 97 1009.0
20260506225538 16 332 12.9 19.3 0.00 0.00 0.00 97 1009.0
20260506225436 16 328 12.9 19.3 0.00 0.00 0.00 97 1009.0
20260506225355 17 333 8.0 19.3 0.00 0.00 0.00 97 1009.0
20260506225233 16 316 8.0 19.3 0.00 0.00 0.00 97 1009.0
20260506225152 16 350 14.5 19.3 0.00 0.00 0.00 97 1009.0
20260506225034 16 185 9.7 19.3 0.00 0.00 0.00 97 1009.0
20260506224954 17 326 8.0 19.3 0.00 0.00 0.00 97 1009.0
20260506224831 16 326 16.1 19.3 0.00 0.00 0.00 97 1009.0
20260506224741 16 333 11.3 19.3 0.00 0.00 0.00 97 1009.0
20260506224649 16 333 8.0 19.3 0.00 0.00 0.00 97 1009.0
20260506224526 16 333 3.2 19.3 0.00 0.00 0.00 97 1009.0
20260506224424 16 319 9.7 19.3 0.00 0.00 0.00 97 1009.0
20260506224328 16 347 9.7 19.3 0.00 0.00 0.00 97 1008.6
20260506224226 16 326 12.9 19.3 0.00 0.00 0.00 97 1008.6
20260506224124 16 325 9.7 19.3 0.00 0.00 0.00 97 1008.6
20260506224043 16 325 9.7 19.3 0.00 0.00 0.00 97 1008.6
20260506223942 16 326 8.0 19.3 0.00 0.00 0.00 97 1008.6
20260506223839 16 329 11.3 19.3 0.00 0.00 0.00 97 1008.6
20260506223759 16 315 12.9 19.3 0.00 0.00 0.00 97 1008.6
20260506223636 16 328 11.3 20.9 0.00 0.00 0.00 97 1008.6
20260506223538 16 330 6.4 20.9 0.00 0.00 0.00 97 1008.6
20260506223436 16 323 8.0 20.9 0.00 0.00 0.00 97 1008.6
20260506223334 16 329 11.3 20.9 0.00 0.00 0.00 97 1008.6
20260506223243 16 328 4.8 20.9 0.00 0.00 0.00 97 1008.6
20260506223154 16 335 8.0 20.9 0.00 0.00 0.00 97 1008.6
20260506223030 16 333 9.7 20.9 0.00 0.00 0.00 97 1008.6
20260506222928 17 54 9.7 20.9 0.00 0.00 0.00 97 1008.6
20260506222831 16 319 12.9 20.9 0.00 0.00 0.00 97 1008.2
20260506222730 16 326 12.9 20.9 0.00 0.00 0.00 97 1008.2
20260506222628 16 306 11.3 20.9 0.00 0.00 0.00 97 1008.2
20260506222525 16 333 12.9 20.9 0.00 0.00 0.00 97 1008.2
20260506222424 16 346 11.3 20.9 0.00 0.00 0.00 97 1008.2
20260506222342 17 333 12.9 20.9 0.00 0.00 0.00 97 1008.2
20260506222241 17 326 11.3 19.3 0.00 0.00 0.00 97 1008.2
20260506222200 17 315 11.3 19.3 0.00 0.00 0.00 97 1008.2
20260506222041 17 326 12.9 19.3 0.00 0.00 0.00 97 1008.2
20260506221938 17 329 12.9 19.3 0.00 0.00 0.00 97 1008.2
20260506221835 16 333 9.7 19.3 0.00 0.00 0.00 97 1008.2
20260506221734 17 328 9.7 19.3 0.00 0.00 0.00 97 1008.2
20260506221703 16 315 8.0 19.3 0.00 0.00 0.00 97 1008.2
20260506221601 17 357 9.7 19.3 0.00 0.00 0.00 97 1008.2
20260506221439 16 333 12.9 19.3 0.00 0.00 0.00 97 1008.2
20260506221336 17 349 11.3 19.3 0.00 0.00 0.00 97 1008.8
20260506221238 16 340 8.0 19.3 0.00 0.00 0.00 97 1008.8
20260506221137 17 325 9.7 19.3 0.00 0.00 0.00 97 1008.8
20260506221037 17 342 14.5 19.3 0.00 0.00 0.00 97 1008.8
20260506220935 17 330 14.5 17.7 0.00 0.00 0.00 97 1008.8
20260506220853 16 322 9.7 14.5 0.00 0.00 0.00 97 1008.8
20260506220731 17 350 8.0 11.3 0.00 0.00 0.00 97 1008.8
20260506220650 16 316 9.7 11.3 0.00 0.00 0.00 97 1008.8
20260506220527 16 325 3.2 11.3 0.00 0.00 0.00 97 1008.8
20260506220428 16 325 6.4 11.3 0.00 0.00 0.00 97 1008.8
20260506220328 16 323 1.6 11.3 0.00 0.00 0.00 97 1008.8
20260506220237 16 315 1.6 12.9 0.00 0.00 0.00 97 1008.8
20260506220147 16 319 4.8 12.9 0.00 0.00 0.00 97 1008.8
20260506220044 16 319 6.4 12.9 0.00 0.00 0.00 97 1008.8
20260506215941 16 325 6.4 12.9 0.00 0.00 0.00 97 1008.8
20260506215841 16 313 6.4 12.9 0.00 0.00 0.00 97 1008.0
20260506215739 16 319 1.6 12.9 0.00 0.00 0.00 97 1008.0
20260506215642 16 316 6.4 12.9 0.00 0.00 0.00 97 1008.0
20260506215602 16 319 9.7 12.9 0.00 0.00 0.00 97 1008.0
20260506215439 16 333 8.0 12.9 0.00 0.00 0.00 97 1008.0
20260506215336 16 326 6.4 12.9 0.00 0.00 0.00 97 1008.0
20260506215232 16 322 4.8 12.9 0.00 0.00 0.00 97 1008.0
20260506215131 16 329 6.4 12.9 0.00 0.00 0.00 97 1008.0
20260506215029 16 326 4.8 12.9 0.00 0.00 0.00 97 1008.0
20260506214928 16 333 6.4 12.9 0.00 0.00 0.00 97 1008.0
20260506214829 16 323 9.7 12.9 0.00 0.00 0.00 96 1008.0
20260506214740 16 320 6.4 11.3 0.00 0.00 0.00 96 1008.0
20260506214649 16 336 6.4 11.3 0.00 0.00 0.00 96 1008.0
20260506214527 16 340 9.7 11.3 0.00 0.00 0.00 97 1008.0
20260506214446 16 319 6.4 11.3 0.00 0.00 0.00 97 1008.0
20260506214344 16 340 6.4 11.3 0.00 0.00 0.00 96 1008.0
20260506214241 16 340 4.8 11.3 0.00 0.00 0.00 97 1008.0
20260506214159 16 342 4.8 11.3 0.00 0.00 0.00 97 1008.0
20260506214041 16 333 3.2 11.3 0.00 0.00 0.00 97 1008.0
20260506214000 16 326 6.4 11.3 0.00 0.00 0.00 96 1008.0
20260506213837 16 333 8.0 11.3 0.00 0.00 0.00 96 1008.0
20260506213736 16 332 8.0 11.3 0.00 0.00 0.00 96 1008.0
20260506213654 16 330 4.8 11.3 0.00 0.00 0.00 96 1008.0
20260506213531 16 309 3.2 11.3 0.00 0.00 0.00 96 1008.0
20260506213449 17 323 3.2 12.9 0.00 0.00 0.00 96 1008.0
20260506213347 16 328 6.4 14.5 0.00 0.00 0.00 96 1008.0
20260506213246 16 328 9.7 14.5 0.00 0.00 0.00 96 1008.0
20260506213201 16 320 9.7 14.5 0.00 0.00 0.00 96 1008.0
20260506213040 16 326 8.0 14.5 0.00 0.00 0.00 96 1008.0
20260506212937 16 326 6.4 14.5 0.00 0.00 0.00 96 1008.0
20260506212837 16 333 6.4 14.5 0.00 0.00 0.00 96 1008.0
20260506212735 16 323 4.8 14.5 0.00 0.00 0.00 96 1008.0
20260506212634 16 332 9.7 14.5 0.00 0.00 0.00 96 1008.0
20260506212532 16 329 9.7 14.5 0.00 0.00 0.00 96 1008.0
20260506212434 16 326 6.4 14.5 0.00 0.00 0.00 96 1008.0
20260506212353 16 315 8.0 14.5 0.00 0.00 0.00 96 1008.0
20260506212229 16 326 6.4 14.5 0.00 0.00 0.00 96 1008.0
20260506212151 17 329 9.7 14.5 0.00 0.00 0.00 96 1008.0
20260506212029 16 326 11.3 14.5 0.00 0.00 0.00 96 1008.0
20260506211928 16 332 6.4 14.5 0.00 0.00 0.00 96 1008.0
20260506211827 16 337 9.7 14.5 0.00 0.00 0.00 96 1008.0
20260506211731 17 336 11.3 14.5 0.00 0.00 0.00 96 1008.0
20260506211659 16 335 9.7 14.5 0.00 0.00 0.00 96 1008.0
20260506211539 16 323 8.0 12.9 0.00 0.00 0.00 96 1008.0
20260506211458 16 315 6.4 17.7 0.00 0.00 0.00 96 1008.0
20260506211355 16 322 8.0 19.3 0.00 0.00 0.00 96 1007.9
20260506211233 16 322 9.7 19.3 0.00 0.00 0.00 96 1007.9
20260506211132 16 322 11.3 19.3 0.00 0.00 0.00 96 1007.9
20260506211030 16 309 9.7 19.3 0.00 0.00 0.00 96 1007.9
20260506210934 16 318 11.3 19.3 0.00 0.00 0.00 96 1007.9
20260506210832 16 326 9.7 19.3 0.00 0.00 0.00 96 1007.9
20260506210731 16 323 8.0 19.3 0.00 0.00 0.00 96 1007.9
20260506210650 16 320 8.0 19.3 0.00 0.00 0.00 96 1007.9
20260506210527 16 318 12.9 19.3 0.00 0.00 0.00 96 1007.9
20260506210429 16 322 14.5 17.7 0.00 0.00 0.00 96 1007.9
20260506210327 16 308 9.7 17.7 0.00 0.00 0.00 96 1007.9
20260506210228 16 322 8.0 17.7 0.00 0.00 0.00 96 1007.9
20260506210200 16 337 8.0 17.7 0.00 0.00 0.00 96 1007.9
20260506210037 16 323 8.0 17.7 0.00 0.00 0.00 96 1007.9
20260506205939 16 320 8.0 17.7 0.00 0.00 0.00 96 1007.9
20260506205838 16 326 9.7 17.7 0.00 0.00 0.00 96 1007.6
20260506205735 16 318 8.0 16.1 0.00 0.00 0.00 96 1007.6
20260506205635 16 320 6.4 16.1 0.00 0.00 0.00 96 1007.6
20260506205538 16 308 4.8 16.1 0.00 0.00 0.00 96 1007.6
20260506205437 16 308 8.0 16.1 0.00 0.00 0.00 96 1007.6
20260506205354 16 325 9.7 16.1 0.00 0.00 0.00 96 1007.6
20260506205254 16 330 9.7 16.1 0.00 0.00 0.00 96 1007.6
20260506205132 16 328 6.4 16.1 0.00 0.00 0.00 96 1007.6
20260506205030 16 322 8.0 16.1 0.00 0.00 0.00 96 1007.6
20260506204929 16 322 8.0 16.1 0.00 0.00 0.00 96 1007.6
20260506204828 16 306 6.4 16.1 0.00 0.00 0.00 96 1007.6
20260506204802 16 330 6.4 19.3 0.00 0.00 0.00 96 1007.6
20260506204651 16 323 8.0 19.3 0.00 0.00 0.00 96 1007.6
20260506204529 16 320 6.4 19.3 0.00 0.00 0.00 96 1007.6
20260506204447 16 322 4.8 19.3 0.00 0.00 0.00 96 1007.6
20260506204324 16 322 8.0 19.3 0.00 0.00 0.00 96 1008.1
20260506204242 16 316 8.0 19.3 0.00 0.00 0.00 96 1008.1
20260506204140 16 323 9.7 19.3 0.00 0.00 0.00 96 1008.1
20260506204039 16 326 6.4 19.3 0.00 0.00 0.00 96 1008.1
20260506203958 16 320 11.3 19.3 0.00 0.00 0.00 96 1008.1
20260506203900 16 329 12.9 19.3 0.00 0.00 0.00 96 1008.1
20260506203757 16 318 14.5 19.3 0.00 0.00 0.00 96 1008.1
20260506203635 16 322 14.5 19.3 0.00 0.00 0.00 96 1008.1
20260506203532 16 326 11.3 17.7 0.00 0.00 0.00 96 1008.1
20260506203430 16 326 8.0 17.7 0.00 0.00 0.00 96 1008.1
20260506203328 16 316 8.0 17.7 0.00 0.00 0.00 96 1008.1
20260506203226 16 328 11.3 19.3 0.00 0.00 0.00 96 1008.1
20260506203157 16 323 8.0 19.3 0.00 0.00 0.00 96 1008.1
20260506203040 16 340 6.4 19.3 0.00 0.00 0.00 96 1008.1
20260506202939 16 323 11.3 19.3 0.00 0.00 0.00 96 1008.1
20260506202837 16 330 12.9 19.3 0.00 0.00 0.00 96 1008.1
20260506202735 16 326 14.5 19.3 0.00 0.00 0.00 96 1008.1
20260506202634 16 329 11.3 19.3 0.00 0.00 0.00 96 1008.1
20260506202552 16 318 8.0 19.3 0.00 0.00 0.00 96 1008.1
20260506202430 16 319 11.3 19.3 0.00 0.00 0.00 96 1008.1
20260506202332 16 325 6.4 17.7 0.00 0.00 0.00 96 1008.1
20260506202230 16 335 11.3 17.7 0.00 0.00 0.00 96 1008.1
20260506202128 16 329 8.0 17.7 0.00 0.00 0.00 96 1008.1
20260506202028 16 323 4.8 17.7 0.00 0.00 0.00 96 1008.1
20260506201926 16 322 6.4 17.7 0.00 0.00 0.00 96 1008.1
20260506201824 16 315 1.6 17.7 0.00 0.00 0.00 96 1008.1
20260506201735 16 328 6.4 17.7 0.00 0.00 0.00 96 1008.1
20260506201648 16 326 11.3 17.7 0.00 0.00 0.00 96 1008.1
20260506201527 16 318 9.7 17.7 0.00 0.00 0.00 96 1008.1
20260506201424 16 333 11.3 19.3 0.00 0.00 0.00 96 1008.1
20260506201343 16 323 8.0 19.3 0.00 0.00 0.00 96 1008.6
20260506201241 16 325 6.4 19.3 0.00 0.00 0.00 96 1008.6
20260506201141 16 320 4.8 19.3 0.00 0.00 0.00 96 1008.6
20260506201040 16 322 4.8 19.3 0.00 0.00 0.00 96 1008.6
20260506200923 16 319 6.4 19.3 0.00 0.00 0.00 96 1008.6
20260506200843 16 306 8.0 19.3 0.00 0.00 0.00 96 1008.6
20260506200741 16 315 6.4 19.3 0.00 0.00 0.00 96 1008.6
20260506200659 16 312 11.3 19.3 0.00 0.00 0.00 96 1008.6
20260506200537 16 320 11.3 19.3 0.00 0.00 0.00 96 1008.6
20260506200435 16 312 9.7 19.3 0.00 0.00 0.00 96 1008.6
20260506200333 16 328 8.0 12.9 0.00 0.00 0.00 96 1008.6
20260506200302 16 316 11.3 12.9 0.00 0.00 0.00 96 1008.6
20260506200152 16 320 11.3 12.9 0.00 0.00 0.00 96 1008.6
20260506200035 16 322 8.0 12.9 0.00 0.00 0.00 96 1008.6
20260506195933 16 316 3.2 12.9 0.00 0.00 0.00 96 1008.6
20260506195851 16 319 4.8 12.9 0.00 0.00 0.00 96 1008.9
20260506195729 16 319 3.2 12.9 0.00 0.00 0.00 95 1008.9
20260506195648 16 322 3.2 12.9 0.00 0.00 0.00 95 1008.9
20260506195525 16 304 3.2 12.9 0.00 0.00 0.00 95 1008.9
20260506195424 16 305 9.7 12.9 0.00 0.00 0.00 95 1008.9
20260506195324 16 325 4.8 11.3 0.00 0.00 0.00 95 1008.9
20260506195227 16 291 4.8 16.1 0.00 0.00 0.00 95 1008.9
20260506195126 16 306 4.8 16.1 0.00 0.00 0.00 95 1008.9
20260506195024 16 284 6.4 16.1 0.00 0.00 0.00 95 1008.9
20260506194942 16 325 4.8 16.1 0.00 0.00 0.00 95 1008.9
20260506194841 16 318 3.2 17.7 0.00 0.00 0.00 95 1008.9
20260506194740 16 312 4.8 17.7 0.00 0.00 0.00 95 1008.9
20260506194709 16 313 3.2 17.7 0.00 0.00 0.00 95 1008.9
20260506194546 16 305 8.0 17.7 0.00 0.00 0.00 95 1008.9
20260506194428 16 318 9.7 17.7 0.00 0.00 0.00 95 1008.9
20260506194325 16 325 8.0 17.7 0.00 0.00 0.00 95 1009.2
20260506194243 16 306 6.4 17.7 0.00 0.00 0.00 95 1009.2
20260506194143 16 318 8.0 17.7 0.00 0.00 0.00 95 1009.2
20260506194041 16 322 9.7 17.7 0.00 0.00 0.00 95 1009.2
20260506193939 16 316 8.0 17.7 0.00 0.00 0.00 95 1009.2
20260506193839 16 312 8.0 17.7 0.00 0.00 0.00 95 1009.2
20260506193800 16 277 6.4 17.7 0.00 0.00 0.00 95 1009.2
20260506193658 16 299 4.8 24.1 0.00 0.00 0.00 95 1009.2
20260506193535 16 316 4.8 24.1 0.00 0.00 0.00 95 1009.2
20260506193434 16 298 4.8 24.1 0.00 0.00 0.00 95 1009.2
20260506193332 16 316 1.6 24.1 0.00 0.00 0.00 95 1009.2
20260506193243 16 309 9.7 24.1 0.00 0.00 0.00 95 1009.2
20260506193152 16 306 8.0 24.1 0.00 0.00 0.00 94 1009.2
20260506193028 16 311 8.0 24.1 0.00 0.00 0.00 94 1009.2
20260506192951 16 308 6.4 24.1 0.00 0.00 0.00 94 1009.2
20260506192828 16 326 9.7 24.1 0.00 0.00 0.00 94 1009.7
20260506192727 16 315 11.3 19.3 0.00 0.00 0.00 94 1009.7
20260506192626 16 302 11.3 19.3 0.00 0.00 0.00 94 1009.7
20260506192524 16 306 9.7 17.7 0.00 0.00 0.00 94 1009.7
20260506192442 16 318 11.3 17.7 0.00 0.00 0.00 94 1009.7
20260506192341 16 302 8.0 17.7 0.00 0.00 0.00 94 1009.7
20260506192244 16 318 8.0 22.5 0.00 0.00 0.00 94 1009.7
20260506192203 16 304 9.7 22.5 0.00 0.00 0.00 94 1009.7
20260506192104 16 306 11.3 22.5 0.00 0.00 0.00 94 1009.7
20260506191940 16 311 9.7 22.5 0.00 0.00 0.00 94 1009.7
20260506191839 16 304 6.4 22.5 0.00 0.00 0.00 94 1009.7
20260506191738 16 305 11.3 22.5 0.00 0.00 0.00 94 1009.7
20260506191707 16 315 4.8 22.5 0.00 0.00 0.00 94 1009.7
20260506191524 16 328 8.0 22.5 0.00 0.00 0.00 94 1009.7
20260506191425 16 328 14.5 22.5 0.00 0.00 0.00 93 1009.7
20260506191343 16 313 12.9 25.7 0.00 0.00 0.00 93 1009.7
20260506191242 16 304 6.4 32.2 0.00 0.00 0.00 93 1009.7
20260506191141 16 302 4.8 32.2 0.00 0.00 0.00 93 1009.7
20260506191100 16 320 11.3 32.2 0.00 0.00 0.00 93 1009.7
20260506190938 16 318 11.3 32.2 0.00 0.00 0.00 93 1009.7
20260506190836 16 319 8.0 32.2 0.00 0.00 0.00 93 1009.7
20260506190735 16 325 12.9 32.2 0.00 0.00 0.00 93 1009.7
20260506190638 16 313 11.3 32.2 0.00 0.00 0.00 93 1009.7
20260506190559 16 318 12.9 32.2 0.00 0.00 0.00 93 1009.7
20260506190457 16 296 14.5 32.2 0.00 0.00 0.00 93 1009.7
20260506190334 16 328 12.9 32.2 0.00 0.00 0.00 93 1009.7
20260506190253 16 330 6.4 25.7 0.00 0.00 0.00 93 1009.7
20260506190223 16 329 4.8 25.7 0.00 0.00 0.00 93 1009.7
20260506190039 16 329 6.4 25.7 0.00 0.00 0.00 93 1009.7
20260506185937 16 313 4.8 32.2 0.00 0.00 0.00 93 1009.7
20260506185840 16 318 8.0 32.2 0.00 0.00 0.00 93 1009.5
20260506185738 16 322 11.3 32.2 0.00 0.00 0.00 93 1009.5
20260506185636 16 329 12.9 32.2 0.00 0.00 0.00 93 1009.5
20260506185555 16 329 14.5 32.2 0.00 0.00 0.00 93 1009.5
20260506185432 16 311 8.0 32.2 0.00 0.00 0.00 93 1009.5
20260506185330 16 330 8.0 32.2 0.00 0.00 0.00 93 1009.5
20260506185229 16 305 12.9 32.2 0.00 0.00 0.00 93 1009.5
20260506185136 16 322 16.1 32.2 0.00 0.00 0.00 93 1009.5
20260506185034 16 329 14.5 20.9 0.00 0.00 0.00 93 1009.5
20260506184932 16 325 16.1 20.9 0.00 0.00 0.00 93 1009.5
20260506184850 16 326 11.3 17.7 0.00 0.00 0.00 93 1009.5
20260506184748 16 322 8.0 17.7 0.00 0.00 0.00 93 1009.5
20260506184717 16 326 9.7 17.7 0.00 0.00 0.00 93 1009.5
20260506184537 16 312 9.7 14.5 0.00 0.00 0.00 93 1009.5
20260506184456 16 319 11.3 14.5 0.00 0.00 0.00 93 1009.5
20260506184333 16 328 9.7 14.5 0.00 0.00 0.00 93 1009.8
20260506184236 16 329 6.4 16.1 0.00 0.00 0.00 93 1009.8
20260506184133 16 326 3.2 17.7 0.00 0.00 0.00 93 1009.8
20260506184030 16 323 4.8 17.7 0.00 0.00 0.00 93 1009.8
20260506183929 16 329 9.7 17.7 0.00 0.00 0.00 93 1009.8
20260506183827 16 329 9.7 17.7 0.00 0.00 0.00 93 1009.8
20260506183726 16 326 11.3 17.7 0.00 0.00 0.00 93 1009.8
20260506183629 16 328 9.7 17.7 0.00 0.00 0.00 92 1009.8
20260506183531 16 328 6.4 17.7 0.00 0.00 0.00 93 1009.8
20260506183448 16 329 9.7 17.7 0.00 0.00 0.00 93 1009.8
20260506183326 16 328 14.5 17.7 0.00 0.00 0.00 93 1009.8
20260506183245 16 330 8.0 17.7 0.00 0.00 0.00 93 1009.8
20260506183217 16 325 3.2 17.7 0.00 0.00 0.00 93 1009.8
20260506183034 16 329 6.4 17.7 0.00 0.00 0.00 92 1009.8
20260506182932 16 326 6.4 22.5 0.00 0.00 0.00 92 1009.8
20260506182834 16 330 3.2 22.5 0.00 0.00 0.00 92 1010.6
20260506182734 16 323 8.0 22.5 0.00 0.00 0.00 92 1010.6
20260506182652 16 285 4.8 25.7 0.00 0.00 0.00 92 1010.6
20260506182530 16 323 8.0 25.7 0.00 0.00 0.00 92 1010.6
20260506182450 16 319 6.4 25.7 0.00 0.00 0.00 92 1010.6
20260506182327 16 326 8.0 25.7 0.00 0.00 0.00 92 1010.6
20260506182226 16 330 9.7 27.4 0.00 0.00 0.00 92 1010.6
20260506182124 16 328 14.5 27.4 0.00 0.00 0.00 92 1010.6
20260506182026 17 330 12.9 27.4 0.00 0.00 0.00 92 1010.6
20260506181946 17 322 9.7 27.4 0.00 0.00 0.00 92 1010.6
20260506181843 17 318 11.3 27.4 0.00 0.00 0.00 92 1010.6
20260506181741 17 320 11.3 27.4 0.00 0.00 0.00 92 1010.6
20260506181711 17 294 12.9 27.4 0.00 0.00 0.00 92 1010.6
20260506181528 17 328 19.3 27.4 0.00 0.00 0.00 92 1010.6
20260506181446 17 295 20.9 27.4 0.00 0.00 0.00 92 1010.6
20260506181405 17 311 16.1 27.4 0.00 0.00 0.00 92 1010.6
20260506181302 17 325 9.7 27.4 0.00 0.00 0.00 92 1010.6
20260506181145 17 312 14.5 27.4 0.00 0.00 0.00 92 1010.6
20260506181022 17 318 14.5 27.4 0.00 0.00 0.00 92 1010.6
20260506180944 17 328 9.7 27.4 0.00 0.00 0.00 92 1010.6
20260506180842 17 326 9.7 27.4 0.00 0.00 0.00 92 1010.6
20260506180740 17 309 12.9 27.4 0.00 0.00 0.00 92 1010.6
20260506180638 17 319 11.3 19.3 0.00 0.00 0.00 92 1010.6
20260506180537 17 329 6.4 19.3 0.00 0.00 0.00 92 1010.6
20260506180436 17 323 9.7 19.3 0.00 0.00 0.00 92 1010.6
20260506180339 17 328 11.3 22.5 0.00 0.00 0.00 92 1010.6
20260506180238 17 326 4.8 25.7 0.00 0.00 0.00 92 1010.6
20260506180210 17 319 6.4 25.7 0.00 0.00 0.00 92 1010.6
20260506180026 17 299 6.4 32.2 0.00 0.00 0.00 92 1010.6
20260506175943 17 318 8.0 32.2 0.00 0.00 0.00 92 1010.6
20260506175841 17 328 8.0 32.2 0.00 0.00 0.00 92 1010.6
20260506175759 17 326 9.7 32.2 0.00 0.00 0.00 92 1010.6
20260506175655 17 329 11.3 32.2 0.00 0.00 0.00 92 1010.6
20260506175537 17 325 11.3 32.2 0.00 0.00 0.00 92 1010.6
20260506175435 17 326 19.3 32.2 0.00 0.00 0.00 92 1010.6
20260506175333 17 289 6.4 32.2 0.00 0.00 0.00 92 1010.6
20260506175231 17 329 16.1 32.2 0.00 0.00 0.00 92 1010.6
20260506175131 17 325 11.3 17.7 0.00 0.00 0.00 92 1010.6
20260506175029 17 329 6.4 17.7 0.00 0.00 0.00 92 1010.6
20260506174930 17 328 8.0 19.3 0.00 0.00 0.00 92 1010.6
20260506174833 17 329 11.3 20.9 0.00 0.00 0.00 92 1010.6
20260506174743 17 325 6.4 20.9 0.00 0.00 0.00 92 1010.6
20260506174651 17 316 6.4 20.9 0.00 0.00 0.00 92 1010.6
20260506174529 17 323 8.0 25.7 0.00 0.00 0.00 92 1010.6
20260506174428 17 312 6.4 32.2 0.00 0.00 0.00 92 1010.6
20260506174346 18 313 3.2 32.2 0.00 0.00 0.00 92 1010.9
20260506174243 18 328 6.4 33.8 0.00 0.00 0.00 92 1010.9
20260506174141 18 312 12.9 33.8 0.00 0.00 0.00 92 1010.9
20260506174104 18 322 12.9 33.8 0.00 0.00 0.00 92 1010.9
20260506173941 18 318 11.3 33.8 0.00 0.00 0.00 92 1010.9
20260506173840 18 323 9.7 33.8 0.00 0.00 0.00 92 1010.9
20260506173757 18 335 14.5 33.8 0.00 0.00 0.00 92 1010.9
20260506173635 18 336 19.3 33.8 0.00 0.00 0.00 93 1010.9
20260506173532 18 313 16.1 33.8 0.00 0.00 0.00 93 1010.9
20260506173431 18 312 19.3 33.8 0.00 0.00 0.00 93 1010.9
20260506173333 18 315 6.4 20.9 0.00 0.00 0.00 93 1010.9
20260506173241 18 344 9.7 19.3 0.00 0.00 0.00 93 1010.9
20260506173151 18 329 8.0 19.3 0.00 0.00 0.00 93 1010.9
20260506173032 18 323 9.7 19.3 0.00 0.00 0.00 93 1010.9
20260506172929 18 313 4.8 19.3 0.00 0.00 0.00 93 1010.9
20260506172827 18 328 6.4 19.3 0.00 0.00 0.00 93 1010.5
20260506172747 18 304 4.8 19.3 0.00 0.00 0.00 93 1010.5
20260506172706 18 304 8.0 29.0 0.00 0.00 0.00 93 1010.5
20260506172603 18 294 8.0 29.0 0.00 0.00 0.00 93 1010.5
20260506172445 18 302 9.7 29.0 0.00 0.00 0.00 93 1010.5
20260506172342 18 308 11.3 29.0 0.00 0.00 0.00 93 1010.5
20260506172240 18 311 8.0 29.0 0.00 0.00 0.00 93 1010.5
20260506172138 18 328 4.8 29.0 0.00 0.00 0.00 93 1010.5
20260506172037 18 320 8.0 29.0 0.00 0.00 0.00 93 1010.5
20260506171954 18 302 11.3 29.0 0.00 0.00 0.00 93 1010.5
20260506171852 18 329 20.9 29.0 0.00 0.00 0.00 93 1010.5
20260506171741 18 312 9.7 29.0 0.00 0.00 0.00 93 1010.5
20260506171650 18 322 8.0 29.0 0.00 0.00 0.00 92 1010.5
20260506171531 18 326 9.7 29.0 0.00 0.00 0.00 92 1010.5
20260506171450 18 323 9.7 29.0 0.00 0.00 0.00 92 1010.5
20260506171328 18 315 12.9 29.0 0.00 0.00 0.00 92 1010.4
20260506171246 18 312 14.5 29.0 0.00 0.00 0.00 92 1010.4
20260506171143 18 320 12.9 29.0 0.00 0.00 0.00 92 1010.4
20260506171041 18 296 14.5 29.0 0.00 0.00 0.00 92 1010.4
20260506170940 18 313 19.3 33.8 0.00 0.00 0.00 92 1010.4
20260506170859 18 313 14.5 33.8 0.00 0.00 0.00 92 1010.4
20260506170737 18 299 14.5 33.8 0.00 0.00 0.00 92 1010.4
20260506170640 18 328 12.9 33.8 0.00 0.00 0.00 92 1010.4
20260506170537 18 329 11.3 33.8 0.00 0.00 0.00 92 1010.4
20260506170437 18 329 14.5 33.8 0.00 0.00 0.00 92 1010.4
20260506170334 18 313 12.9 33.8 0.00 0.00 0.00 92 1010.4
20260506170303 18 325 14.5 33.8 0.00 0.00 0.00 92 1010.4
20260506170151 18 280 22.5 33.8 0.00 0.00 0.00 92 1010.4
20260506170029 18 326 22.5 33.8 0.00 0.00 0.00 92 1010.4
20260506165932 18 319 20.9 33.8 0.00 0.00 0.00 92 1010.4
20260506165850 18 313 14.5 33.8 0.00 0.00 0.00 92 1010.2
20260506165729 18 326 24.1 33.8 0.00 0.00 0.00 92 1010.2
20260506165631 18 291 19.3 32.2 0.00 0.00 0.00 92 1010.2
20260506165530 18 312 17.7 32.2 0.00 0.00 0.00 92 1010.2
20260506165448 18 322 14.5 32.2 0.00 0.00 0.00 92 1010.2
20260506165406 18 319 16.1 33.8 0.00 0.00 0.00 92 1010.2
20260506165305 18 282 16.1 33.8 0.00 0.00 0.00 92 1010.2
20260506165124 18 332 20.9 33.8 0.00 0.00 0.00 92 1010.2
20260506165043 18 315 16.1 33.8 0.00 0.00 0.00 92 1010.2
20260506165001 18 325 14.5 33.8 0.00 0.00 0.00 92 1010.2
20260506164858 18 291 19.3 33.8 0.00 0.00 0.00 92 1010.2
20260506164755 18 323 27.4 33.8 0.00 0.00 0.00 92 1010.2
20260506164704 18 319 17.7 33.8 0.00 0.00 0.00 92 1010.2
20260506164541 18 315 19.3 33.8 0.00 0.00 0.00 92 1010.2
20260506164439 18 247 12.9 25.7 0.00 0.00 0.00 93 1010.2
20260506164338 18 298 14.5 25.7 0.00 0.00 0.00 92 1009.9
20260506164241 18 316 19.3 35.4 0.00 0.00 0.00 92 1009.9
20260506164139 18 315 11.3 35.4 0.00 0.00 0.00 92 1009.9
20260506164038 18 328 11.3 35.4 0.00 0.00 0.00 92 1009.9
20260506163935 18 319 16.1 35.4 0.00 0.00 0.00 92 1009.9
20260506163854 18 328 14.5 35.4 0.00 0.00 0.00 92 1009.9
20260506163752 18 322 8.0 35.4 0.00 0.00 0.00 92 1009.9
20260506163631 18 316 16.1 35.4 0.00 0.00 0.00 92 1009.9
20260506163530 18 315 14.5 35.4 0.00 0.00 0.00 92 1009.9
20260506163452 18 319 14.5 35.4 0.00 0.00 0.00 92 1009.9
20260506163329 18 316 20.9 33.8 0.00 0.00 0.00 92 1009.9
20260506163228 18 325 20.9 33.8 0.00 0.00 0.00 92 1009.9
20260506163158 18 254 17.7 33.8 0.00 0.00 0.00 92 1009.9
20260506163035 18 305 22.5 33.8 0.00 0.00 0.00 93 1009.9
20260506162934 18 323 20.9 30.6 0.00 0.00 0.00 92 1009.9
20260506162832 18 305 17.7 30.6 0.00 0.00 0.00 93 1009.9
20260506162730 18 298 9.7 33.8 0.00 0.00 0.00 93 1009.9
20260506162634 18 291 9.7 33.8 0.00 0.00 0.00 93 1009.9
20260506162535 18 312 17.7 33.8 0.00 0.00 0.00 93 1009.9
20260506162454 18 313 17.7 33.8 0.00 0.00 0.00 93 1009.9
20260506162331 18 311 6.4 33.8 0.00 0.00 0.00 93 1009.9
20260506162229 18 272 6.4 33.8 0.00 0.00 0.00 93 1009.9
20260506162129 18 318 14.5 33.8 0.00 0.00 0.00 93 1009.9
20260506162048 18 326 11.3 33.8 0.00 0.00 0.00 93 1009.9
20260506161930 18 316 22.5 33.8 0.00 0.00 0.00 93 1009.9
20260506161847 18 319 17.7 32.2 0.00 0.00 0.00 93 1009.9
20260506161726 18 316 20.9 32.2 0.00 0.00 0.00 93 1009.9
20260506161659 18 268 20.9 32.2 0.00 0.00 0.00 93 1009.9
20260506161537 18 280 25.7 32.2 0.00 0.00 0.00 93 1009.9
20260506161435 18 287 16.1 40.2 0.00 0.00 0.00 93 1009.9
20260506161335 18 322 14.5 40.2 0.00 0.00 0.00 93 1009.9
20260506161233 18 318 16.1 40.2 0.00 0.00 0.00 93 1009.9
20260506161134 18 323 16.1 40.2 0.00 0.00 0.00 93 1009.9
20260506161032 18 296 20.9 40.2 0.00 0.00 0.00 93 1009.9
20260506160931 18 323 20.9 40.2 0.00 0.00 0.00 93 1009.9
20260506160827 18 322 20.9 40.2 0.00 0.00 0.00 93 1009.9
20260506160746 18 320 12.9 40.2 0.00 0.00 0.00 93 1009.9
20260506160624 18 294 25.7 40.2 0.00 0.00 0.00 93 1009.9
20260506160524 18 325 19.3 35.4 0.00 0.00 0.00 93 1009.9
20260506160427 18 329 20.9 35.4 0.00 0.00 0.00 93 1009.9
20260506160326 18 318 11.3 35.4 0.00 0.00 0.00 93 1009.9
20260506160225 18 288 16.1 35.4 0.00 0.00 0.00 93 1009.9
20260506160157 18 316 12.9 35.4 0.00 0.00 0.00 93 1009.9
20260506160037 18 326 11.3 35.4 0.00 0.00 0.00 93 1009.9
20260506155935 18 298 9.7 35.4 0.00 0.00 0.00 93 1009.9
20260506155833 18 280 17.7 41.8 0.00 0.00 0.00 93 1009.6
20260506155732 18 323 22.5 49.9 0.00 0.00 0.00 93 1009.6
20260506155655 18 328 27.4 49.9 0.00 0.00 0.00 93 1009.6
20260506155532 18 302 17.7 49.9 0.00 0.00 0.00 93 1009.6
20260506155431 18 306 20.9 49.9 0.00 0.00 0.00 93 1009.6
20260506155329 18 319 20.9 49.9 0.00 0.00 0.00 93 1009.6
20260506155231 18 319 22.5 49.9 0.00 0.00 0.00 93 1009.6
20260506155129 18 291 24.1 49.9 0.00 0.00 0.00 93 1009.6
20260506155048 18 315 29.0 49.9 0.00 0.00 0.00 93 1009.6
20260506154928 18 302 24.1 49.9 0.00 0.00 0.00 93 1009.6
20260506154828 18 315 19.3 40.2 0.00 0.00 0.00 93 1009.6
20260506154738 18 326 19.3 40.2 0.00 0.00 0.00 93 1009.6
20260506154648 18 322 19.3 43.5 0.00 0.00 0.00 93 1009.6
20260506154525 18 316 20.9 43.5 0.00 0.00 0.00 93 1009.6
20260506154445 18 323 20.9 43.5 0.00 0.00 0.00 93 1009.6
20260506154343 18 309 24.1 43.5 0.00 0.00 0.00 93 1009.7
20260506154300 18 322 20.9 43.5 0.00 0.00 0.00 93 1009.7
20260506154138 18 318 22.5 46.7 0.00 0.00 0.00 93 1009.7
20260506154100 18 277 22.5 46.7 0.00 0.00 0.00 93 1009.7
20260506153958 18 299 20.9 46.7 0.00 0.00 0.00 93 1009.7
20260506153836 18 312 19.3 46.7 0.00 0.00 0.00 93 1009.7
20260506153755 18 294 25.7 46.7 0.00 0.00 0.00 93 1009.7
20260506153633 18 326 22.5 46.7 0.00 0.00 0.00 93 1009.7
20260506153532 18 319 29.0 46.7 0.00 0.00 0.00 93 1009.7
20260506153449 18 312 22.5 46.7 0.00 0.00 0.00 93 1009.7
20260506153347 18 250 27.4 46.7 0.00 0.00 0.00 93 1009.7
20260506153245 18 328 16.1 40.2 0.00 0.00 0.00 93 1009.7
20260506153216 18 271 14.5 43.5 0.00 0.00 0.00 93 1009.7
20260506153037 18 330 16.1 43.5 0.00 0.00 0.00 93 1009.7
20260506152935 18 301 19.3 43.5 0.00 0.00 0.00 93 1009.7
20260506152835 18 311 17.7 43.5 0.00 0.00 0.00 93 1009.5
20260506152732 18 320 22.5 43.5 0.00 0.00 0.00 93 1009.5
20260506152630 18 329 14.5 43.5 0.00 0.00 0.00 93 1009.5
20260506152527 18 316 22.5 43.5 0.00 0.00 0.00 93 1009.5
20260506152446 18 313 19.3 43.5 0.00 0.00 0.00 93 1009.5
20260506152343 18 320 20.9 43.5 0.00 0.00 0.00 93 1009.5
20260506152225 18 298 25.7 43.5 0.00 0.00 0.00 93 1009.5
20260506152124 18 330 30.6 43.5 0.00 0.00 0.00 93 1009.5
20260506152024 18 243 22.5 35.4 0.00 0.00 0.00 93 1009.5
20260506151942 18 296 22.5 35.4 0.00 0.00 0.00 93 1009.5
20260506151900 18 281 17.7 35.4 0.00 0.00 0.00 93 1009.5
20260506151737 18 241 14.5 35.4 0.00 0.00 0.00 93 1009.5
20260506151706 18 302 14.5 33.8 0.00 0.00 0.00 93 1009.5
20260506151603 18 301 19.3 35.4 0.00 0.00 0.00 93 1009.5
20260506151425 18 313 22.5 35.4 0.00 0.00 0.00 93 1009.5
20260506151324 18 270 16.1 38.6 0.00 0.00 0.00 93 1010.1
20260506151243 18 308 20.9 38.6 0.00 0.00 0.00 93 1010.1
20260506151141 18 304 19.3 38.6 0.00 0.00 0.00 93 1010.1
20260506151039 18 289 20.9 38.6 0.00 0.00 0.00 93 1010.1
20260506150940 18 277 19.3 38.6 0.00 0.00 0.00 93 1010.1
20260506150838 18 330 17.7 38.6 0.00 0.00 0.00 93 1010.1
20260506150800 18 325 19.3 38.6 0.00 0.00 0.00 93 1010.1
20260506150637 18 292 17.7 38.6 0.00 0.00 0.00 93 1010.1
20260506150535 18 308 20.9 38.6 0.00 0.00 0.00 93 1010.1
20260506150437 18 306 17.7 38.6 0.00 0.00 0.00 93 1010.1
20260506150335 18 320 12.9 38.6 0.00 0.00 0.00 93 1010.1
20260506150234 18 298 24.1 38.6 0.00 0.00 0.00 93 1010.1
20260506150204 18 308 25.7 38.6 0.00 0.00 0.00 93 1010.1
20260506150025 18 319 27.4 38.6 0.00 0.00 0.00 93 1010.1
20260506145924 18 241 22.5 38.6 0.00 0.00 0.00 93 1010.1
20260506145842 18 270 20.9 33.8 0.00 0.00 0.00 93 1010.1
20260506145740 18 295 17.7 35.4 0.00 0.00 0.00 93 1010.1
20260506145639 18 311 16.1 35.4 0.00 0.00 0.00 93 1010.1
20260506145537 18 313 12.9 35.4 0.00 0.00 0.00 93 1010.1
20260506145435 18 319 17.7 35.4 0.00 0.00 0.00 93 1010.1
20260506145337 18 289 19.3 35.4 0.00 0.00 0.00 93 1010.1
20260506145236 18 253 12.9 35.4 0.00 0.00 0.00 93 1010.1
20260506145135 18 294 11.3 35.4 0.00 0.00 0.00 93 1010.1
20260506145033 18 325 17.7 35.4 0.00 0.00 0.00 93 1010.1
20260506144952 18 304 14.5 35.4 0.00 0.00 0.00 93 1010.1
20260506144829 18 277 11.3 41.8 0.00 0.00 0.00 93 1010.1
20260506144759 18 322 25.7 41.8 0.00 0.00 0.00 93 1010.1
20260506144647 18 313 12.9 41.8 0.00 0.00 0.00 93 1010.1
20260506144549 18 312 16.1 41.8 0.00 0.00 0.00 93 1010.1
20260506144447 18 318 12.9 41.8 0.00 0.00 0.00 93 1010.1
20260506144343 18 288 20.9 41.8 0.00 0.00 0.00 93 1010.3
20260506144240 18 322 20.9 41.8 0.00 0.00 0.00 93 1010.3
20260506144140 18 311 19.3 41.8 0.00 0.00 0.00 93 1010.3
20260506144040 18 330 20.9 41.8 0.00 0.00 0.00 93 1010.3
20260506143938 18 257 14.5 35.4 0.00 0.00 0.00 93 1010.3
20260506143837 18 316 17.7 35.4 0.00 0.00 0.00 93 1010.3
20260506143739 18 280 20.9 35.4 0.00 0.00 0.00 93 1010.3
20260506143657 18 271 17.7 35.4 0.00 0.00 0.00 93 1010.3
20260506143535 18 326 16.1 32.2 0.00 0.00 0.00 93 1010.3
20260506143433 18 306 11.3 32.2 0.00 0.00 0.00 93 1010.3
20260506143352 18 244 17.7 32.2 0.00 0.00 0.00 92 1010.3
20260506143240 18 333 14.5 32.2 0.00 0.00 0.00 92 1010.3
20260506143150 17 318 16.1 32.2 0.00 0.00 0.00 92 1010.3
20260506143027 17 311 20.9 32.2 0.00 0.00 0.00 92 1010.3
20260506142930 17 319 14.5 27.4 0.00 0.00 0.00 92 1010.3
20260506142848 17 308 16.1 27.4 0.00 0.00 0.00 92 1010.1
20260506142726 17 326 17.7 27.4 0.00 0.00 0.00 92 1010.1
20260506142624 17 313 12.9 25.7 0.00 0.00 0.00 92 1010.1
20260506142543 17 285 16.1 25.7 0.00 0.00 0.00 92 1010.1
20260506142440 17 288 17.7 25.7 0.00 0.00 0.00 92 1010.1
20260506142359 17 291 16.1 25.7 0.00 0.00 0.00 92 1010.1
20260506142236 17 328 12.9 25.7 0.00 0.00 0.00 92 1010.1
20260506142137 17 312 12.9 25.7 0.00 0.00 0.00 92 1010.1
20260506142056 17 305 16.1 25.7 0.00 0.00 0.00 92 1010.1
20260506141933 17 272 16.1 25.7 0.00 0.00 0.00 92 1010.1
20260506141831 17 316 14.5 25.7 0.00 0.00 0.00 92 1010.1
20260506141750 17 328 12.9 25.7 0.00 0.00 0.00 92 1010.1
20260506141659 17 315 11.3 25.7 0.00 0.00 0.00 92 1010.1
20260506141536 17 322 14.5 25.7 0.00 0.00 0.00 92 1010.1
20260506141435 17 294 11.3 25.7 0.00 0.00 0.00 92 1010.1
20260506141334 17 325 12.9 25.7 0.00 0.00 0.00 92 1009.9
20260506141240 17 323 12.9 25.7 0.00 0.00 0.00 92 1009.9
20260506141138 17 313 12.9 25.7 0.00 0.00 0.00 92 1009.9
20260506141036 17 319 12.9 25.7 0.00 0.00 0.00 92 1009.9
20260506140933 17 323 14.5 25.7 0.00 0.00 0.00 92 1009.9
20260506140833 17 281 12.9 25.7 0.00 0.00 0.00 92 1009.9
20260506140753 17 325 14.5 25.7 0.00 0.00 0.00 92 1009.9
20260506140631 17 326 14.5 25.7 0.00 0.00 0.00 92 1009.9
20260506140533 17 308 14.5 25.7 0.00 0.00 0.00 92 1009.9
20260506140432 17 291 14.5 25.7 0.00 0.00 0.00 92 1009.9
20260506140352 17 287 14.5 25.7 0.00 0.00 0.00 92 1009.9
20260506140230 17 304 8.0 25.7 0.00 0.00 0.00 92 1009.9
20260506140201 17 254 9.7 25.7 0.00 0.00 0.00 92 1009.9
20260506140058 17 320 8.0 25.7 0.00 0.00 0.00 92 1009.9
20260506135935 17 311 6.4 17.7 0.00 0.00 0.00 92 1009.9
20260506135833 17 275 9.7 20.9 0.00 0.00 0.00 92 1009.6
20260506135735 17 284 11.3 20.9 0.00 0.00 0.00 92 1009.6
20260506135634 17 313 9.7 25.7 0.00 0.00 0.00 92 1009.6
20260506135534 17 277 9.7 25.7 0.00 0.00 0.00 92 1009.6
20260506135454 17 267 6.4 25.7 0.00 0.00 0.00 92 1009.6
20260506135330 17 268 8.0 25.7 0.00 0.00 0.00 92 1009.6
20260506135230 17 313 9.7 25.7 0.00 0.00 0.00 92 1009.6
20260506135129 17 271 12.9 25.7 0.00 0.00 0.00 91 1009.6
20260506135051 17 315 11.3 25.7 0.00 0.00 0.00 91 1009.6
20260506134928 17 240 12.9 25.7 0.00 0.00 0.00 92 1009.6
20260506134827 17 316 12.9 25.7 0.00 0.00 0.00 91 1009.6
20260506134729 17 280 16.1 25.7 0.00 0.00 0.00 91 1009.6
20260506134658 17 271 6.4 17.7 0.00 0.00 0.00 91 1009.6
20260506134536 17 213 3.2 19.3 0.00 0.00 0.00 91 1009.6
20260506134435 17 198 8.0 19.3 0.00 0.00 0.00 91 1009.6
20260506134353 17 217 11.3 30.6 0.00 0.00 0.00 91 1010.6
20260506134234 17 220 6.4 30.6 0.00 0.00 0.00 91 1010.6
20260506134133 17 330 4.8 30.6 0.00 0.00 0.00 91 1010.6
20260506134032 17 322 4.8 30.6 0.00 0.00 0.00 91 1010.6
20260506133930 17 328 3.2 30.6 0.00 0.00 0.00 91 1010.6
20260506133829 17 302 0.0 30.6 0.00 0.00 0.00 91 1010.6
20260506133728 17 329 8.0 30.6 0.00 0.00 0.00 90 1010.6
20260506133631 17 326 12.9 30.6 0.00 0.00 0.00 90 1010.6
20260506133533 18 325 16.1 30.6 0.00 0.00 0.00 90 1010.6
20260506133430 18 330 22.5 30.6 0.00 0.00 0.00 90 1010.6
20260506133349 18 328 14.5 29.0 0.00 0.00 0.00 90 1010.6
20260506133237 18 311 11.3 20.9 0.00 0.00 0.00 90 1010.6
20260506133148 18 316 4.8 20.9 0.00 0.00 0.00 89 1010.6
20260506133025 18 323 3.2 20.9 0.00 0.00 0.00 89 1010.6
20260506132924 18 319 6.4 20.9 0.00 0.00 0.00 89 1010.6
20260506132826 18 309 4.8 20.9 0.00 0.00 0.00 89 1010.4
20260506132725 18 319 4.8 20.9 0.00 0.00 0.00 89 1010.4
20260506132644 18 328 6.4 20.9 0.00 0.00 0.00 89 1010.4
20260506132601 18 323 11.3 20.9 0.00 0.00 0.00 89 1010.4
20260506132440 18 278 12.9 20.9 0.00 0.00 0.00 89 1010.4
20260506132339 18 332 11.3 24.1 0.00 0.00 0.00 89 1010.4
20260506132238 18 323 6.4 25.7 0.00 0.00 0.00 89 1010.4
20260506132142 18 312 6.4 40.2 0.00 0.00 0.00 89 1010.4
20260506132039 18 333 4.8 40.2 0.00 0.00 0.00 89 1010.4
20260506131937 18 336 8.0 40.2 0.00 0.00 0.00 88 1010.4
20260506131836 18 318 9.7 40.2 0.00 0.00 0.00 88 1010.4
20260506131734 18 320 6.4 40.2 0.00 0.00 0.00 88 1010.4
20260506131703 18 270 8.0 40.2 0.00 0.00 0.00 88 1010.4
20260506131540 18 305 11.3 40.2 0.00 0.00 0.00 88 1010.4
20260506131443 18 320 14.5 40.2 0.00 0.00 0.00 88 1010.4
20260506131341 18 311 22.5 40.2 0.00 0.00 0.00 88 1009.7
20260506131240 18 287 25.7 40.2 0.00 0.00 0.00 87 1009.7
20260506131137 18 261 17.7 35.4 0.00 0.00 0.00 87 1009.7
20260506131035 18 319 16.1 35.4 0.00 0.00 0.00 87 1009.7
20260506130933 18 233 17.7 35.4 0.00 0.00 0.00 87 1009.7
20260506130832 18 330 17.7 35.4 0.00 0.00 0.00 87 1009.7
20260506130731 18 316 20.9 38.6 0.00 0.00 0.00 87 1009.7
20260506130632 18 306 17.7 38.6 0.00 0.00 0.00 87 1009.7
20260506130531 18 330 20.9 38.6 0.00 0.00 0.00 87 1009.7
20260506130429 18 326 27.4 38.6 0.00 0.00 0.00 86 1009.7
20260506130327 18 308 24.1 38.6 0.00 0.00 0.00 86 1009.7
20260506130257 18 270 19.3 40.2 0.00 0.00 0.00 86 1009.7
20260506130146 18 316 14.5 40.2 0.00 0.00 0.00 86 1009.7
20260506130042 18 258 16.1 40.2 0.00 0.00 0.00 86 1009.7
20260506125925 18 326 25.7 41.8 0.00 0.00 0.00 86 1009.7
20260506125824 18 299 24.1 41.8 0.00 0.00 0.00 86 1009.5
20260506125743 18 304 19.3 41.8 0.00 0.00 0.00 86 1009.5
20260506125642 18 305 16.1 41.8 0.00 0.00 0.00 86 1009.5
20260506125540 18 328 12.9 41.8 0.00 0.00 0.00 85 1009.5
20260506125459 18 315 17.7 41.8 0.00 0.00 0.00 85 1009.5
20260506125354 18 306 27.4 41.8 0.00 0.00 0.00 85 1009.5
20260506125253 18 315 22.5 41.8 0.00 0.00 0.00 85 1009.5
20260506125151 18 291 24.1 41.8 0.00 0.00 0.00 85 1009.5
20260506125032 18 312 16.1 33.8 0.00 0.00 0.00 85 1009.5
20260506124930 18 328 20.9 35.4 0.00 0.00 0.00 85 1009.5
20260506124829 18 291 17.7 35.4 0.00 0.00 0.00 85 1009.5
20260506124729 18 258 27.4 35.4 0.00 0.00 0.00 85 1009.5
20260506124702 18 329 17.7 35.4 0.00 0.00 0.00 85 1009.5
20260506124541 18 315 19.3 35.4 0.00 0.00 0.00 84 1009.5
20260506124440 18 325 20.9 35.4 0.00 0.00 0.00 84 1009.5
20260506124343 18 322 24.1 35.4 0.00 0.00 0.00 84 1009.5
20260506124240 18 319 24.1 35.4 0.00 0.00 0.00 84 1009.5
20260506124138 18 312 24.1 35.4 0.00 0.00 0.00 84 1009.5
20260506124037 18 253 17.7 35.4 0.00 0.00 0.00 84 1009.5
20260506123935 18 294 14.5 35.4 0.00 0.00 0.00 84 1009.5
20260506123853 18 292 20.9 35.4 0.00 0.00 0.00 83 1009.5
20260506123751 18 330 20.9 35.4 0.00 0.00 0.00 83 1009.5
20260506123630 18 264 17.7 35.4 0.00 0.00 0.00 83 1009.5
20260506123532 18 295 17.7 35.4 0.00 0.00 0.00 83 1009.5
20260506123431 18 313 12.9 35.4 0.00 0.00 0.00 83 1009.5
20260506123329 18 264 24.1 35.4 0.00 0.00 0.00 83 1009.5
20260506123240 18 305 29.0 35.4 0.00 0.00 0.00 83 1009.5
20260506123149 18 302 20.9 35.4 0.00 0.00 0.00 83 1009.5
20260506123026 18 295 16.1 35.4 0.00 0.00 0.00 83 1009.5
20260506122945 18 301 16.1 35.4 0.00 0.00 0.00 83 1009.5
20260506122826 18 312 20.9 35.4 0.00 0.00 0.00 83 1008.8
20260506122725 18 329 19.3 35.4 0.00 0.00 0.00 83 1008.8
20260506122643 18 320 20.9 35.4 0.00 0.00 0.00 83 1008.8
20260506122540 18 322 20.9 35.4 0.00 0.00 0.00 83 1008.8
20260506122439 18 318 19.3 32.2 0.00 0.00 0.00 83 1008.8
20260506122338 18 274 22.5 32.2 0.00 0.00 0.00 83 1008.8
20260506122237 18 315 16.1 30.6 0.00 0.00 0.00 83 1008.8
20260506122137 18 311 12.9 30.6 0.00 0.00 0.00 83 1008.8
20260506122041 18 329 12.9 30.6 0.00 0.00 0.00 83 1008.8
20260506121959 18 265 14.5 32.2 0.00 0.00 0.00 83 1008.8
20260506121837 18 302 19.3 33.8 0.00 0.00 0.00 83 1008.8
20260506121736 18 301 19.3 33.8 0.00 0.00 0.00 83 1008.8
20260506121704 18 315 17.7 33.8 0.00 0.00 0.00 83 1008.8
20260506121540 18 318 20.9 33.8 0.00 0.00 0.00 83 1008.8
20260506121458 18 299 17.7 33.8 0.00 0.00 0.00 83 1008.8
20260506121336 18 309 19.3 33.8 0.00 0.00 0.00 83 1008.8
20260506121239 18 309 19.3 33.8 0.00 0.00 0.00 83 1008.8
20260506121158 18 281 20.9 33.8 0.00 0.00 0.00 83 1008.8
20260506121036 18 304 20.9 33.8 0.00 0.00 0.00 83 1008.8
20260506120936 18 304 19.3 33.8 0.00 0.00 0.00 83 1008.8
20260506120833 18 329 20.9 33.8 0.00 0.00 0.00 83 1008.8
20260506120732 18 304 25.7 33.8 0.00 0.00 0.00 83 1008.8
20260506120630 18 267 19.3 33.8 0.00 0.00 0.00 82 1008.8
20260506120529 18 296 19.3 33.8 0.00 0.00 0.00 82 1008.8
20260506120432 18 323 17.7 33.8 0.00 0.00 0.00 82 1008.8
20260506120331 18 268 19.3 33.8 0.00 0.00 0.00 82 1008.8
20260506120241 18 264 20.9 40.2 0.00 0.00 0.00 82 1008.8
20260506120151 18 257 22.5 40.2 0.00 0.00 0.00 82 1008.8
20260506120026 18 323 17.7 40.2 0.00 0.00 0.00 82 1008.8
20260506115945 18 320 19.3 40.2 0.00 0.00 0.00 82 1008.8
20260506115843 18 270 20.9 40.2 0.00 0.00 0.00 82 1008.6
20260506115725 18 267 9.7 40.2 0.00 0.00 0.00 82 1008.6
20260506115624 18 315 22.5 40.2 0.00 0.00 0.00 82 1008.6
20260506115543 18 330 20.9 40.2 0.00 0.00 0.00 82 1008.6
20260506115441 18 302 29.0 40.2 0.00 0.00 0.00 82 1008.6
20260506115339 18 329 20.9 35.4 0.00 0.00 0.00 82 1008.6
20260506115238 18 316 16.1 32.2 0.00 0.00 0.00 82 1008.6
20260506115156 18 318 17.7 32.2 0.00 0.00 0.00 82 1008.6
20260506115034 18 288 20.9 32.2 0.00 0.00 0.00 82 1008.6
20260506114936 18 322 14.5 27.4 0.00 0.00 0.00 82 1008.6
20260506114834 18 326 9.7 27.4 0.00 0.00 0.00 82 1008.6
20260506114752 18 296 14.5 27.4 0.00 0.00 0.00 82 1008.6
20260506114723 18 319 16.1 32.2 0.00 0.00 0.00 82 1008.6
20260506114559 18 325 16.1 32.2 0.00 0.00 0.00 82 1008.6
20260506114435 18 282 16.1 32.2 0.00 0.00 0.00 82 1008.6
20260506114334 18 296 16.1 43.5 0.00 0.00 0.00 82 1008.3
20260506114253 18 323 17.7 43.5 0.00 0.00 0.00 82 1008.3
20260506114133 18 323 22.5 43.5 0.00 0.00 0.00 82 1008.3
20260506114051 18 312 9.7 43.5 0.00 0.00 0.00 82 1008.3
20260506113933 18 325 12.9 43.5 0.00 0.00 0.00 82 1008.3
20260506113831 18 328 12.9 43.5 0.00 0.00 0.00 82 1008.3
20260506113730 18 285 17.7 43.5 0.00 0.00 0.00 82 1008.3
20260506113628 18 326 11.3 43.5 0.00 0.00 0.00 82 1008.3
20260506113527 18 294 24.1 43.5 0.00 0.00 0.00 81 1008.3
20260506113425 18 328 22.5 35.4 0.00 0.00 0.00 81 1008.3
20260506113327 18 292 16.1 35.4 0.00 0.00 0.00 81 1008.3
20260506113237 18 323 25.7 35.4 0.00 0.00 0.00 81 1008.3
20260506113146 18 316 19.3 33.8 0.00 0.00 0.00 81 1008.3
20260506113043 18 318 20.9 35.4 0.00 0.00 0.00 81 1008.3
20260506112942 18 272 20.9 35.4 0.00 0.00 0.00 81 1008.3
20260506112841 18 325 20.9 35.4 0.00 0.00 0.00 81 1008.1
20260506112739 18 326 11.3 35.4 0.00 0.00 0.00 81 1008.1
20260506112637 18 328 14.5 35.4 0.00 0.00 0.00 81 1008.1
20260506112539 18 308 14.5 35.4 0.00 0.00 0.00 81 1008.1
20260506112438 18 313 16.1 35.4 0.00 0.00 0.00 81 1008.1
20260506112336 18 288 17.7 35.4 0.00 0.00 0.00 81 1008.1
20260506112235 18 323 29.0 35.4 0.00 0.00 0.00 81 1008.1
20260506112154 18 316 25.7 33.8 0.00 0.00 0.00 81 1008.1
20260506112031 18 319 17.7 30.6 0.00 0.00 0.00 81 1008.1
20260506111929 18 291 20.9 30.6 0.00 0.00 0.00 81 1008.1
20260506111847 18 323 20.9 30.6 0.00 0.00 0.00 81 1008.1
20260506111806 18 320 16.1 30.6 0.00 0.00 0.00 81 1008.1
20260506111717 18 322 16.1 30.6 0.00 0.00 0.00 81 1008.1
20260506111535 18 328 17.7 30.6 0.00 0.00 0.00 81 1008.1
20260506111433 18 322 19.3 30.6 0.00 0.00 0.00 81 1008.1
20260506111332 18 305 12.9 32.2 0.00 0.00 0.00 81 1007.6
20260506111231 18 295 16.1 32.2 0.00 0.00 0.00 81 1007.6
20260506111131 18 301 16.1 32.2 0.00 0.00 0.00 81 1007.6
20260506111031 18 234 17.7 32.2 0.00 0.00 0.00 81 1007.6
20260506110949 18 315 12.9 32.2 0.00 0.00 0.00 81 1007.6
20260506110831 18 272 16.1 41.8 0.00 0.00 0.00 81 1007.6
20260506110729 18 287 16.1 41.8 0.00 0.00 0.00 81 1007.6
20260506110627 18 302 25.7 45.1 0.00 0.00 0.00 81 1007.6
20260506110525 18 299 20.9 45.1 0.00 0.00 0.00 81 1007.6
20260506110443 18 298 16.1 45.1 0.00 0.00 0.00 81 1007.6
20260506110342 18 315 16.1 45.1 0.00 0.00 0.00 81 1007.6
20260506110242 18 301 17.7 45.1 0.00 0.00 0.00 81 1007.6
20260506110212 18 295 14.5 45.1 0.00 0.00 0.00 81 1007.6
20260506110052 18 311 22.5 45.1 0.00 0.00 0.00 80 1007.6
20260506105929 18 313 17.7 45.1 0.00 0.00 0.00 80 1007.6
20260506105831 18 296 25.7 45.1 0.00 0.00 0.00 80 1007.8
20260506105733 18 295 29.0 41.8 0.00 0.00 0.00 80 1007.8
20260506105652 18 302 20.9 41.8 0.00 0.00 0.00 80 1007.8
20260506105529 18 222 19.3 41.8 0.00 0.00 0.00 80 1007.8
20260506105429 18 318 25.7 41.8 0.00 0.00 0.00 80 1007.8
20260506105334 18 295 29.0 41.8 0.00 0.00 0.00 80 1007.8
20260506105231 18 287 16.1 38.6 0.00 0.00 0.00 80 1007.8
20260506105131 18 301 22.5 38.6 0.00 0.00 0.00 80 1007.8
20260506105029 18 311 25.7 38.6 0.00 0.00 0.00 80 1007.8
20260506104927 18 287 14.5 38.6 0.00 0.00 0.00 80 1007.8
20260506104824 18 278 22.5 38.6 0.00 0.00 0.00 80 1007.8
20260506104724 18 302 30.6 38.6 0.00 0.00 0.00 80 1007.8
20260506104654 18 282 19.3 33.8 0.00 0.00 0.00 80 1007.8
20260506104555 18 250 20.9 33.8 0.00 0.00 0.00 80 1007.8
20260506104433 18 292 22.5 33.8 0.00 0.00 0.00 80 1007.8
20260506104332 18 308 24.1 40.2 0.00 0.00 0.00 80 1007.5
20260506104231 18 298 19.3 40.2 0.00 0.00 0.00 80 1007.5
20260506104128 18 313 14.5 40.2 0.00 0.00 0.00 80 1007.5
20260506104025 18 281 16.1 41.8 0.00 0.00 0.00 80 1007.5
20260506103943 18 313 20.9 41.8 0.00 0.00 0.00 80 1007.5
20260506103842 18 326 24.1 45.1 0.00 0.00 0.00 80 1007.5
20260506103800 18 294 20.9 45.1 0.00 0.00 0.00 80 1007.5
20260506103643 18 329 22.5 45.1 0.00 0.00 0.00 80 1007.5
20260506103601 18 322 27.4 45.1 0.00 0.00 0.00 80 1007.5
20260506103336 18 306 29.0 45.1 0.00 0.00 0.00 80 1007.5
20260506103234 18 323 33.8 45.1 0.00 0.00 0.00 80 1007.5
20260506103205 18 333 24.1 45.1 0.00 0.00 0.00 80 1007.5
20260506103043 18 320 29.0 45.1 0.00 0.00 0.00 80 1007.5
20260506102926 18 322 29.0 45.1 0.00 0.00 0.00 80 1007.5
20260506102826 18 318 27.4 43.5 0.00 0.00 0.00 80 1007.5
20260506102724 18 315 12.9 43.5 0.00 0.00 0.00 80 1007.5
20260506102643 18 320 19.3 43.5 0.00 0.00 0.00 80 1007.5
20260506102542 18 326 19.3 43.5 0.00 0.00 0.00 80 1007.5
20260506102440 18 291 24.1 43.5 0.00 0.00 0.00 80 1007.5
20260506102339 18 309 16.1 41.8 0.00 0.00 0.00 80 1007.5
20260506102241 18 322 19.3 41.8 0.00 0.00 0.00 80 1007.5
20260506102139 18 316 20.9 41.8 0.00 0.00 0.00 80 1007.5
20260506102039 18 319 16.1 41.8 0.00 0.00 0.00 80 1007.5
20260506101938 18 284 12.9 41.8 0.00 0.00 0.00 80 1007.5
20260506101856 18 308 9.7 41.8 0.00 0.00 0.00 80 1007.5
20260506101732 18 291 12.9 41.8 0.00 0.00 0.00 80 1007.5
20260506101703 18 319 14.5 41.8 0.00 0.00 0.00 80 1007.5
20260506101601 18 311 19.3 41.8 0.00 0.00 0.00 79 1007.5
20260506101443 18 322 24.1 41.8 0.00 0.00 0.00 79 1007.5
20260506101342 18 326 19.3 38.6 0.00 0.00 0.00 79 1007.3
20260506101241 18 322 9.7 35.4 0.00 0.00 0.00 79 1007.3
20260506101159 18 315 12.9 35.4 0.00 0.00 0.00 79 1007.3
20260506101037 18 301 16.1 35.4 0.00 0.00 0.00 79 1007.3
20260506100935 18 325 14.5 35.4 0.00 0.00 0.00 79 1007.3
20260506100834 18 305 24.1 35.4 0.00 0.00 0.00 79 1007.3
20260506100736 18 288 20.9 43.5 0.00 0.00 0.00 79 1007.3
20260506100654 18 268 20.9 43.5 0.00 0.00 0.00 79 1007.3
20260506100531 18 230 12.9 43.5 0.00 0.00 0.00 79 1007.3
20260506100450 18 299 19.3 43.5 0.00 0.00 0.00 79 1007.3
20260506100327 18 298 12.9 43.5 0.00 0.00 0.00 79 1007.3
20260506100236 18 328 24.1 43.5 0.00 0.00 0.00 79 1007.3
20260506100146 18 309 16.1 43.5 0.00 0.00 0.00 79 1007.3
20260506100041 18 322 20.9 43.5 0.00 0.00 0.00 79 1007.3
20260506095925 18 312 29.0 43.5 0.00 0.00 0.00 79 1007.3
20260506095842 18 329 16.1 33.8 0.00 0.00 0.00 79 1007.1
20260506095741 18 272 20.9 33.8 0.00 0.00 0.00 79 1007.1
20260506095640 18 292 14.5 32.2 0.00 0.00 0.00 79 1007.1
20260506095538 18 291 14.5 32.2 0.00 0.00 0.00 79 1007.1
20260506095436 18 280 17.7 32.2 0.00 0.00 0.00 79 1007.1
20260506095355 18 270 24.1 32.2 0.00 0.00 0.00 79 1007.1
20260506095232 18 312 20.9 32.2 0.00 0.00 0.00 79 1007.1
20260506095134 18 313 20.9 33.8 0.00 0.00 0.00 79 1007.1
20260506095032 18 309 17.7 33.8 0.00 0.00 0.00 79 1007.1
20260506094931 18 272 14.5 33.8 0.00 0.00 0.00 79 1007.1
20260506094828 18 313 17.7 33.8 0.00 0.00 0.00 79 1007.1
20260506094737 18 282 19.3 38.6 0.00 0.00 0.00 79 1007.1
20260506094646 18 306 22.5 38.6 0.00 0.00 0.00 79 1007.1
20260506094524 18 280 22.5 40.2 0.00 0.00 0.00 79 1007.1
20260506094447 18 288 19.3 40.2 0.00 0.00 0.00 79 1007.1
20260506094325 18 322 20.9 40.2 0.00 0.00 0.00 79 1007.0
20260506094243 18 309 20.9 40.2 0.00 0.00 0.00 79 1007.0
20260506094142 18 301 20.9 40.2 0.00 0.00 0.00 79 1007.0
20260506094043 18 309 16.1 40.2 0.00 0.00 0.00 79 1007.0
20260506094001 18 301 17.7 40.2 0.00 0.00 0.00 79 1007.0
20260506093838 18 267 24.1 40.2 0.00 0.00 0.00 79 1007.0
20260506093735 18 301 27.4 40.2 0.00 0.00 0.00 79 1007.0
20260506093637 18 291 24.1 40.2 0.00 0.00 0.00 79 1007.0
20260506093536 18 306 24.1 43.5 0.00 0.00 0.00 79 1007.0
20260506093433 18 288 27.4 43.5 0.00 0.00 0.00 79 1007.0
20260506093332 18 264 27.4 43.5 0.00 0.00 0.00 79 1007.0
20260506093230 18 312 22.5 43.5 0.00 0.00 0.00 79 1007.0
20260506093201 18 312 29.0 46.7 0.00 0.00 0.00 79 1007.0
20260506093037 18 306 22.5 46.7 0.00 0.00 0.00 79 1007.0
20260506092941 18 315 24.1 46.7 0.00 0.00 0.00 79 1007.0
20260506092840 18 313 22.5 46.7 0.00 0.00 0.00 79 1007.3
20260506092739 18 295 22.5 46.7 0.00 0.00 0.00 79 1007.3
20260506092638 18 316 22.5 46.7 0.00 0.00 0.00 79 1007.3
20260506092535 18 292 14.5 46.7 0.00 0.00 0.00 79 1007.3
20260506092433 18 291 22.5 46.7 0.00 0.00 0.00 79 1007.3
20260506092331 18 305 22.5 46.7 0.00 0.00 0.00 79 1007.3
20260506092233 18 258 16.1 38.6 0.00 0.00 0.00 78 1007.3
20260506092131 18 322 20.9 45.1 0.00 0.00 0.00 78 1007.3
20260506092029 18 309 22.5 45.1 0.00 0.00 0.00 78 1007.3
20260506091927 18 308 22.5 45.1 0.00 0.00 0.00 78 1007.3
20260506091826 18 313 19.3 45.1 0.00 0.00 0.00 78 1007.3
20260506091724 18 316 25.7 45.1 0.00 0.00 0.00 78 1007.3
20260506091651 18 309 16.1 45.1 0.00 0.00 0.00 78 1007.3
20260506091533 18 326 16.1 45.1 0.00 0.00 0.00 78 1007.3
20260506091453 18 329 17.7 45.1 0.00 0.00 0.00 78 1007.3
20260506091331 18 306 19.3 45.1 0.00 0.00 0.00 78 1007.2
20260506091229 18 295 29.0 45.1 0.00 0.00 0.00 77 1007.2
20260506091129 18 304 22.5 43.5 0.00 0.00 0.00 77 1007.2
20260506091046 18 312 19.3 43.5 0.00 0.00 0.00 77 1007.2
20260506090943 18 267 19.3 43.5 0.00 0.00 0.00 77 1007.2
20260506090843 18 298 27.4 43.5 0.00 0.00 0.00 77 1007.2
20260506090725 18 281 14.5 41.8 0.00 0.00 0.00 77 1007.2
20260506090643 18 287 12.9 41.8 0.00 0.00 0.00 77 1007.2
20260506090602 18 313 17.7 41.8 0.00 0.00 0.00 77 1007.2
20260506090439 18 281 27.4 41.8 0.00 0.00 0.00 77 1007.2
20260506090337 18 312 24.1 43.5 0.00 0.00 0.00 77 1007.2
20260506090255 18 277 22.5 43.5 0.00 0.00 0.00 77 1007.2
20260506090204 18 322 22.5 43.5 0.00 0.00 0.00 77 1007.2
20260506090041 18 318 20.9 43.5 0.00 0.00 0.00 77 1007.2
20260506085943 18 326 14.5 43.5 0.00 0.00 0.00 77 1007.2
20260506085841 18 311 17.7 43.5 0.00 0.00 0.00 77 1006.8
20260506085800 18 306 16.1 43.5 0.00 0.00 0.00 77 1006.8
20260506085638 18 309 16.1 43.5 0.00 0.00 0.00 77 1006.8
20260506085555 18 298 24.1 43.5 0.00 0.00 0.00 77 1006.8
20260506085433 18 322 29.0 43.5 0.00 0.00 0.00 77 1006.8
20260506085332 18 326 24.1 43.5 0.00 0.00 0.00 77 1006.8
20260506085250 18 325 24.1 43.5 0.00 0.00 0.00 77 1006.8
20260506085131 18 311 22.5 43.5 0.00 0.00 0.00 77 1006.8
20260506085030 18 313 16.1 43.5 0.00 0.00 0.00 77 1006.8
20260506084949 18 319 17.7 43.5 0.00 0.00 0.00 77 1006.8
20260506084827 18 322 25.7 43.5 0.00 0.00 0.00 76 1006.8
20260506084725 18 309 19.3 43.5 0.00 0.00 0.00 76 1006.8
20260506084653 18 253 27.4 43.5 0.00 0.00 0.00 76 1006.8
20260506084530 18 316 30.6 43.5 0.00 0.00 0.00 76 1006.8
20260506084426 18 302 22.5 41.8 0.00 0.00 0.00 76 1006.8
20260506084329 18 282 19.3 41.8 0.00 0.00 0.00 76 1006.9
20260506084246 18 311 24.1 48.3 0.00 0.00 0.00 75 1006.9
20260506084144 18 320 22.5 48.3 0.00 0.00 0.00 75 1006.9
20260506084042 18 318 22.5 48.3 0.00 0.00 0.00 75 1006.9
20260506083940 18 315 24.1 48.3 0.00 0.00 0.00 75 1006.9
20260506083838 18 320 22.5 48.3 0.00 0.00 0.00 75 1006.9
20260506083756 18 325 24.1 48.3 0.00 0.00 0.00 74 1006.9
20260506083633 18 328 27.4 48.3 0.00 0.00 0.00 74 1006.9
20260506083532 18 258 27.4 48.3 0.00 0.00 0.00 74 1006.9
20260506083434 18 281 24.1 48.3 0.00 0.00 0.00 74 1006.9
20260506083331 18 318 27.4 48.3 0.00 0.00 0.00 74 1006.9
20260506083244 18 329 24.1 48.3 0.00 0.00 0.00 74 1006.9
20260506083155 18 305 24.1 48.3 0.00 0.00 0.00 74 1006.9
20260506083032 18 311 20.9 49.9 0.00 0.00 0.00 74 1006.9
20260506082950 18 304 20.9 49.9 0.00 0.00 0.00 74 1006.9
20260506082847 18 302 25.7 49.9 0.00 0.00 0.00 74 1006.9
20260506082744 18 316 30.6 49.9 0.00 0.00 0.00 74 1006.9
20260506082626 18 288 24.1 49.9 0.00 0.00 0.00 74 1006.9
20260506082543 18 280 29.0 49.9 0.00 0.00 0.00 74 1006.9
20260506082502 18 325 20.9 49.9 0.00 0.00 0.00 74 1006.9
20260506082339 18 329 20.9 49.9 0.00 0.00 0.00 74 1006.9
20260506082238 18 323 27.4 49.9 0.00 0.00 0.00 74 1006.9
20260506082136 18 323 29.0 48.3 0.00 0.00 0.00 74 1006.9
20260506082033 18 311 27.4 46.7 0.00 0.00 0.00 74 1006.9
20260506081935 18 320 27.4 46.7 0.00 0.00 0.00 74 1006.9
20260506081834 18 298 30.6 46.7 0.00 0.00 0.00 73 1006.9
20260506081753 18 328 25.7 46.7 0.00 0.00 0.00 73 1006.9
20260506081705 18 291 22.5 43.5 0.00 0.00 0.00 73 1006.9
20260506081542 18 326 35.4 43.5 0.00 0.00 0.00 73 1006.9
20260506081501 18 311 27.4 41.8 0.00 0.00 0.00 73 1006.9
20260506081339 18 244 25.7 45.1 0.00 0.00 0.00 73 1006.7
20260506081237 18 275 25.7 45.1 0.00 0.00 0.00 73 1006.7
20260506081135 19 330 25.7 45.1 0.00 0.00 0.00 73 1006.7
20260506081036 19 313 25.7 45.1 0.00 0.00 0.00 73 1006.7
20260506080954 19 299 24.1 45.1 0.00 0.00 0.00 73 1006.7
20260506080853 19 320 25.7 45.1 0.00 0.00 0.00 73 1006.7
20260506080731 19 304 24.1 45.1 0.00 0.00 0.00 73 1006.7
20260506080649 19 311 27.4 45.1 0.00 0.00 0.00 73 1006.7
20260506080526 19 285 29.0 45.1 0.00 0.00 0.00 73 1006.7
20260506080424 19 319 27.4 45.1 0.00 0.00 0.00 73 1006.7
20260506080342 19 313 33.8 45.1 0.00 0.00 0.00 72 1006.7
20260506080236 19 320 24.1 41.8 0.00 0.00 0.00 72 1006.7
20260506080146 19 299 17.7 45.1 0.00 0.00 0.00 72 1006.7
20260506073438 19 280 24.1 41.8 0.00 0.00 0.00 71 1006.6
20260506073336 19 315 20.9 41.8 0.00 0.00 0.00 71 1006.6
20260506073235 19 318 25.7 45.1 0.00 0.00 0.00 71 1006.6
20260506073205 19 328 22.5 45.1 0.00 0.00 0.00 71 1006.6
20260506073026 19 272 27.4 45.1 0.00 0.00 0.00 71 1006.6
20260506072946 19 305 24.1 45.1 0.00 0.00 0.00 71 1006.6
20260506072904 19 301 22.5 45.1 0.00 0.00 0.00 71 1006.5
20260506072742 19 326 25.7 45.1 0.00 0.00 0.00 71 1006.5
20260506072641 19 323 16.1 45.1 0.00 0.00 0.00 71 1006.5
20260506072540 19 246 20.9 45.1 0.00 0.00 0.00 71 1006.5
20260506072439 19 326 27.4 45.1 0.00 0.00 0.00 71 1006.5
20260506072341 19 295 27.4 43.5 0.00 0.00 0.00 71 1006.5
20260506072241 19 292 30.6 45.1 0.00 0.00 0.00 71 1006.5
20260506072139 19 258 30.6 45.1 0.00 0.00 0.00 71 1006.5
20260506072037 19 285 27.4 45.1 0.00 0.00 0.00 71 1006.5
20260506071936 19 316 20.9 45.1 0.00 0.00 0.00 71 1006.5
20260506071834 19 305 24.1 45.1 0.00 0.00 0.00 71 1006.5
20260506071732 19 272 19.3 45.1 0.00 0.00 0.00 70 1006.5
20260506071706 19 298 22.5 45.1 0.00 0.00 0.00 70 1006.5
20260506071604 19 265 24.1 45.1 0.00 0.00 0.00 70 1006.5
20260506071441 19 239 24.1 45.1 0.00 0.00 0.00 70 1006.5
20260506071339 19 323 30.6 45.1 0.00 0.00 0.00 70 1006.4
20260506071241 19 288 25.7 38.6 0.00 0.00 0.00 70 1006.4
20260506071158 19 289 17.7 40.2 0.00 0.00 0.00 70 1006.4
20260506071055 19 274 14.5 43.5 0.00 0.00 0.00 70 1006.4
20260506070932 19 258 20.9 43.5 0.00 0.00 0.00 70 1006.4
20260506070831 19 326 20.9 43.5 0.00 0.00 0.00 70 1006.4
20260506070734 19 298 19.3 43.5 0.00 0.00 0.00 70 1006.4
20260506070634 19 323 20.9 43.5 0.00 0.00 0.00 70 1006.4
20260506070532 19 318 20.9 49.9 0.00 0.00 0.00 70 1006.4
20260506070430 19 312 17.7 49.9 0.00 0.00 0.00 70 1006.4
20260506070328 19 287 17.7 49.9 0.00 0.00 0.00 70 1006.4
20260506070238 19 320 30.6 49.9 0.00 0.00 0.00 70 1006.4
20260506070148 19 282 22.5 49.9 0.00 0.00 0.00 70 1006.4
20260506062443 19 308 20.9 51.5 0.00 0.00 0.00 67 1007.0
20260506062401 19 302 25.7 51.5 0.00 0.00 0.00 67 1007.0
20260506062259 19 304 27.4 51.5 0.00 0.00 0.00 67 1007.0
20260506062136 19 329 27.4 51.5 0.00 0.00 0.00 67 1007.0
20260506062034 19 308 24.1 51.5 0.00 0.00 0.00 67 1007.0
20260506061932 19 316 29.0 51.5 0.00 0.00 0.00 66 1007.0
20260506061835 19 287 27.4 51.5 0.00 0.00 0.00 66 1007.0
20260506061805 19 305 27.4 51.5 0.00 0.00 0.00 66 1007.0
20260506061653 19 250 25.7 51.5 0.00 0.00 0.00 66 1007.0
20260506061531 19 312 25.7 51.5 0.00 0.00 0.00 66 1007.0
20260506061428 19 274 22.5 51.5 0.00 0.00 0.00 66 1007.0
20260506061327 19 316 27.4 51.5 0.00 0.00 0.00 66 1007.0
20260506061226 19 271 25.7 51.5 0.00 0.00 0.00 66 1007.0
20260506061129 19 315 14.5 51.5 0.00 0.00 0.00 66 1007.0
20260506061047 19 291 20.9 51.5 0.00 0.00 0.00 66 1007.0
20260506060924 19 318 24.1 51.5 0.00 0.00 0.00 66 1007.0
20260506060842 19 271 22.5 51.5 0.00 0.00 0.00 66 1007.0
20260506060801 19 254 25.7 51.5 0.00 0.00 0.00 66 1007.0
20260506060639 19 299 16.1 48.3 0.00 0.00 0.00 66 1007.0
20260506060537 19 311 22.5 48.3 0.00 0.00 0.00 66 1007.0
20260506060435 19 296 22.5 48.3 0.00 0.00 0.00 66 1007.0
20260506060333 19 330 27.4 48.3 0.00 0.00 0.00 66 1007.0
20260506060257 19 244 24.1 41.8 0.00 0.00 0.00 66 1007.0
20260506060205 19 320 22.5 41.8 0.00 0.00 0.00 66 1007.0
20260506051400 20 299 14.5 43.5 0.00 0.00 0.00 63 1007.9
20260506051300 20 291 14.5 43.5 0.00 0.00 0.00 63 1007.9
20260506051137 20 284 24.1 43.5 0.00 0.00 0.00 63 1007.9
20260506051034 20 291 30.6 43.5 0.00 0.00 0.00 63 1007.9
20260506050933 20 287 27.4 43.5 0.00 0.00 0.00 63 1007.9
20260506050831 20 272 25.7 40.2 0.00 0.00 0.00 63 1007.9
20260506050733 20 322 20.9 40.2 0.00 0.00 0.00 63 1007.9
20260506050631 20 305 22.5 40.2 0.00 0.00 0.00 63 1007.9
20260506050529 20 326 20.9 48.3 0.00 0.00 0.00 63 1007.9
20260506050428 20 230 22.5 48.3 0.00 0.00 0.00 63 1007.9
20260506050325 20 280 19.3 48.3 0.00 0.00 0.00 63 1007.9
20260506050243 20 288 22.5 48.3 0.00 0.00 0.00 63 1007.9
20260506050214 20 272 27.4 48.3 0.00 0.00 0.00 63 1007.9
20260506045135 20 220 22.5 43.5 0.00 0.00 0.00 62 1007.7
20260506045037 20 306 17.7 43.5 0.00 0.00 0.00 63 1007.7
20260506044955 20 236 20.9 43.5 0.00 0.00 0.00 63 1007.7
20260506044832 20 263 24.1 43.5 0.00 0.00 0.00 63 1007.7
20260506044751 20 271 24.1 43.5 0.00 0.00 0.00 62 1007.7
20260506044720 20 251 17.7 45.1 0.00 0.00 0.00 62 1007.7
20260506044537 20 328 20.9 45.1 0.00 0.00 0.00 62 1007.7
20260506044456 20 312 22.5 45.1 0.00 0.00 0.00 62 1007.7
20260506044333 20 309 27.4 45.1 0.00 0.00 0.00 62 1007.8
20260506044232 20 264 22.5 45.1 0.00 0.00 0.00 62 1007.8
20260506044135 20 299 27.4 45.1 0.00 0.00 0.00 62 1007.8
20260506044033 20 256 19.3 45.1 0.00 0.00 0.00 62 1007.8
20260506043932 20 282 20.9 45.1 0.00 0.00 0.00 62 1007.8
20260506043832 20 325 33.8 45.1 0.00 0.00 0.00 62 1007.8
20260506043730 20 239 29.0 45.1 0.00 0.00 0.00 62 1007.8
20260506043628 20 282 25.7 45.1 0.00 0.00 0.00 62 1007.8
20260506043531 20 294 22.5 45.1 0.00 0.00 0.00 62 1007.8
20260506043429 20 237 20.9 45.1 0.00 0.00 0.00 62 1007.8
20260506043329 20 315 27.4 45.1 0.00 0.00 0.00 62 1007.8
20260506043231 20 264 32.2 45.1 0.00 0.00 0.00 62 1007.8
20260506043201 20 309 24.1 43.5 0.00 0.00 0.00 62 1007.8
20260506043037 20 301 22.5 43.5 0.00 0.00 0.00 62 1007.8
20260506042935 20 217 25.7 43.5 0.00 0.00 0.00 62 1007.8
20260506042838 20 280 20.9 43.5 0.00 0.00 0.00 62 1007.8
20260506042737 20 315 22.5 43.5 0.00 0.00 0.00 62 1007.8
20260506042636 20 277 24.1 43.5 0.00 0.00 0.00 62 1007.8
20260506042536 20 305 20.9 43.5 0.00 0.00 0.00 62 1007.8
20260506042434 20 240 16.1 41.8 0.00 0.00 0.00 62 1007.8
20260506042332 20 319 33.8 41.8 0.00 0.00 0.00 62 1007.8
20260506042230 20 247 33.8 41.8 0.00 0.00 0.00 62 1007.8
20260506042149 20 302 20.9 41.8 0.00 0.00 0.00 62 1007.8
20260506042031 20 315 16.1 41.8 0.00 0.00 0.00 62 1007.8
20260506041950 20 239 27.4 41.8 0.00 0.00 0.00 62 1007.8
20260506041827 20 301 16.1 41.8 0.00 0.00 0.00 62 1007.8
20260506041736 20 329 22.5 41.8 0.00 0.00 0.00 62 1007.8
20260506041646 20 280 16.1 38.6 0.00 0.00 0.00 62 1007.8
20260506041524 20 271 14.5 41.8 0.00 0.00 0.00 62 1007.8
20260506041442 20 236 20.9 41.8 0.00 0.00 0.00 62 1007.8
20260506041325 20 292 14.5 41.8 0.00 0.00 0.00 62 1008.0
20260506041243 20 264 16.1 41.8 0.00 0.00 0.00 62 1008.0
20260506041142 20 285 17.7 49.9 0.00 0.00 0.00 62 1008.0
20260506041102 20 257 20.9 49.9 0.00 0.00 0.00 62 1008.0
20260506040938 20 299 22.5 49.9 0.00 0.00 0.00 62 1008.0
20260506040838 20 281 22.5 49.9 0.00 0.00 0.00 62 1008.0
20260506040736 20 319 22.5 49.9 0.00 0.00 0.00 62 1008.0
20260506040634 20 270 25.7 49.9 0.00 0.00 0.00 62 1008.0
20260506040536 20 291 17.7 49.9 0.00 0.00 0.00 62 1008.0
20260506040455 20 256 22.5 49.9 0.00 0.00 0.00 62 1008.0
20260506040332 20 271 30.6 49.9 0.00 0.00 0.00 62 1008.0
20260506040231 20 305 22.5 45.1 0.00 0.00 0.00 62 1008.0
20260506040201 20 234 17.7 45.1 0.00 0.00 0.00 62 1008.0
20260506040057 20 272 22.5 45.1 0.00 0.00 0.00 62 1008.0
20260506035934 20 258 22.5 45.1 0.00 0.00 0.00 62 1008.0
20260506035832 20 306 22.5 45.1 0.00 0.00 0.00 62 1007.9
20260506035734 20 267 20.9 45.1 0.00 0.00 0.00 62 1007.9
20260506035531 20 292 27.4 45.1 0.00 0.00 0.00 62 1007.9
20260506035428 20 261 22.5 43.5 0.00 0.00 0.00 62 1007.9
20260506035351 20 329 25.7 43.5 0.00 0.00 0.00 62 1007.9
20260506035227 20 312 29.0 43.5 0.00 0.00 0.00 62 1007.9
20260506035126 20 264 17.7 35.4 0.00 0.00 0.00 62 1007.9
20260506035031 20 234 14.5 38.6 0.00 0.00 0.00 62 1007.9
20260506034931 20 233 17.7 43.5 0.00 0.00 0.00 62 1007.9
20260506034828 20 308 20.9 43.5 0.00 0.00 0.00 62 1007.9
20260506034739 20 257 29.0 43.5 0.00 0.00 0.00 62 1007.9
20260506034647 20 315 17.7 45.1 0.00 0.00 0.00 62 1007.9
20260506034524 20 302 20.9 45.1 0.00 0.00 0.00 62 1007.9
20260506034442 20 272 14.5 45.1 0.00 0.00 0.00 62 1007.9
20260506034401 20 219 20.9 45.1 0.00 0.00 0.00 62 1007.9
20260506034244 20 243 24.1 45.1 0.00 0.00 0.00 62 1007.9
20260506034203 20 316 29.0 45.1 0.00 0.00 0.00 63 1007.9
20260506034041 20 284 29.0 45.1 0.00 0.00 0.00 63 1007.9
20260506033939 20 216 25.7 45.1 0.00 0.00 0.00 63 1007.9
20260506033838 20 271 27.4 45.1 0.00 0.00 0.00 63 1007.9
20260506033736 20 291 24.1 45.1 0.00 0.00 0.00 63 1007.9
20260506033635 20 329 19.3 45.1 0.00 0.00 0.00 63 1007.9
20260506033532 20 251 16.1 45.1 0.00 0.00 0.00 63 1007.9
20260506033435 20 246 17.7 45.1 0.00 0.00 0.00 63 1007.9
20260506033333 20 233 25.7 45.1 0.00 0.00 0.00 63 1007.9
20260506033232 20 274 25.7 41.8 0.00 0.00 0.00 63 1007.9
20260506033204 20 240 22.5 41.8 0.00 0.00 0.00 63 1007.9
20260506033042 20 260 25.7 41.8 0.00 0.00 0.00 63 1007.9
20260506032940 20 306 22.5 41.8 0.00 0.00 0.00 63 1007.9
20260506032839 20 247 12.9 41.8 0.00 0.00 0.00 63 1007.9
20260506032800 20 243 14.5 41.8 0.00 0.00 0.00 63 1007.9
20260506032637 20 275 19.3 41.8 0.00 0.00 0.00 63 1007.9
20260506032536 20 233 25.7 41.8 0.00 0.00 0.00 63 1007.9
20260506032435 20 223 22.5 38.6 0.00 0.00 0.00 63 1007.9
20260506032335 20 278 20.9 38.6 0.00 0.00 0.00 63 1007.9
20260506032233 20 278 19.3 38.6 0.00 0.00 0.00 63 1007.9
20260506032131 20 213 22.5 38.6 0.00 0.00 0.00 63 1007.9
20260506032058 20 250 22.5 38.6 0.00 0.00 0.00 63 1007.9
20260506031936 20 193 16.1 32.2 0.00 0.00 0.00 63 1007.9
20260506031834 20 232 19.3 32.2 0.00 0.00 0.00 63 1007.9
20260506031743 20 196 17.7 32.2 0.00 0.00 0.00 63 1007.9
20260506031652 20 288 20.9 32.2 0.00 0.00 0.00 63 1007.9
20260506031548 20 275 19.3 32.2 0.00 0.00 0.00 63 1007.9
20260506031425 20 191 16.1 38.6 0.00 0.00 0.00 63 1007.9
20260506031325 20 268 17.7 38.6 0.00 0.00 0.00 63 1008.3
20260506031228 20 191 14.5 38.6 0.00 0.00 0.00 64 1008.3
20260506031126 20 285 20.9 38.6 0.00 0.00 0.00 64 1008.3
20260506031043 20 247 24.1 38.6 0.00 0.00 0.00 64 1008.3
20260506031001 20 257 17.7 38.6 0.00 0.00 0.00 64 1008.3
20260506030839 20 268 16.1 38.6 0.00 0.00 0.00 64 1008.3
20260506030737 20 299 17.7 38.6 0.00 0.00 0.00 64 1008.3
20260506030636 20 326 19.3 38.6 0.00 0.00 0.00 64 1008.3
20260506030539 20 239 14.5 35.4 0.00 0.00 0.00 64 1008.3
20260506030437 20 236 17.7 35.4 0.00 0.00 0.00 64 1008.3
20260506030336 20 233 16.1 35.4 0.00 0.00 0.00 64 1008.3
20260506030234 20 210 17.7 35.4 0.00 0.00 0.00 63 1008.3
20260506030204 20 205 19.3 40.2 0.00 0.00 0.00 64 1008.3
20260506030040 20 254 17.7 40.2 0.00 0.00 0.00 64 1008.3
20260506025939 20 215 20.9 40.2 0.00 0.00 0.00 64 1008.3
20260506025838 19 296 12.9 40.2 0.00 0.00 0.00 64 1008.2
20260506025739 19 267 20.9 40.2 0.00 0.00 0.00 64 1008.2
20260506025637 19 241 19.3 40.2 0.00 0.00 0.00 64 1008.2
20260506025555 19 260 22.5 40.2 0.00 0.00 0.00 64 1008.2
20260506025432 19 274 14.5 40.2 0.00 0.00 0.00 64 1008.2
20260506025330 19 295 19.3 40.2 0.00 0.00 0.00 64 1008.2
20260506025228 19 260 16.1 40.2 0.00 0.00 0.00 64 1008.2
20260506025146 19 209 20.9 40.2 0.00 0.00 0.00 64 1008.2
20260506025043 19 284 22.5 40.2 0.00 0.00 0.00 64 1008.2
20260506024926 19 222 19.3 40.2 0.00 0.00 0.00 64 1008.2
20260506024823 19 215 17.7 33.8 0.00 0.00 0.00 64 1008.2
20260506024726 19 265 12.9 29.0 0.00 0.00 0.00 64 1008.2
20260506024659 19 230 11.3 40.2 0.00 0.00 0.00 64 1008.2
20260506024536 19 311 12.9 40.2 0.00 0.00 0.00 64 1008.2
20260506024436 19 257 14.5 40.2 0.00 0.00 0.00 64 1008.2
20260506024335 19 232 12.9 40.2 0.00 0.00 0.00 64 1008.2
20260506024236 19 236 17.7 40.2 0.00 0.00 0.00 64 1008.2
20260506024134 19 287 17.7 40.2 0.00 0.00 0.00 64 1008.2
20260506024034 19 230 17.7 40.2 0.00 0.00 0.00 64 1008.2
20260506023934 19 208 17.7 40.2 0.00 0.00 0.00 64 1008.2
20260506023835 19 275 19.3 40.2 0.00 0.00 0.00 64 1008.2
20260506023732 19 222 17.7 35.4 0.00 0.00 0.00 64 1008.2
20260506023631 19 239 22.5 35.4 0.00 0.00 0.00 64 1008.2
20260506023534 19 241 11.3 32.2 0.00 0.00 0.00 64 1008.2
20260506023433 19 288 16.1 32.2 0.00 0.00 0.00 64 1008.2